Observation data for Slaton on 01/13/2021      Previous  Date  Next       Current Mesonet Observations  Soil Data  Daily Summary Page  Observations in Plain Language
KSLS 130600Z 24012KT M05/M07 A3019 RMK A01 T10521066  RH  090%=      5-min Rain = 0
KSLS 130601Z 24012KT M05/M07 A3019 RMK A01 T10521066  RH  090%=      5-min Rain = 0
KSLS 130602Z 24013KT M05/M07 A3019 RMK A01 T10521066  RH  090%=      5-min Rain = 0
KSLS 130603Z 24013KT M05/M07 A3019 RMK A01 T10521066  RH  090%=      5-min Rain = 0
KSLS 130604Z 24013KT M05/M07 A3019 RMK A01 T10521066  RH  090%=      5-min Rain = 0
KSLS 130605Z 25013KT M05/M06 A3019 RMK A01 T10501064  RH  090%=      5-min Rain = 0
KSLS 130606Z 24013KT M05/M06 A3019 RMK A01 T10501064  RH  090%=      5-min Rain = 0
KSLS 130607Z 24013KT M05/M06 A3019 RMK A01 T10491064  RH  090%=      5-min Rain = 0
KSLS 130608Z 24013KT M05/M06 A3019 RMK A01 T10491064  RH  089%=      5-min Rain = 0
KSLS 130609Z 24013KT M05/M06 A3019 RMK A01 T10481063  RH  089%=      5-min Rain = 0
KSLS 130610Z 25013KT M05/M06 A3019 RMK A01 T10481063  RH  089%=      5-min Rain = 0
KSLS 130611Z 25012KT M05/M06 A3019 RMK A01 T10481064  RH  089%=      5-min Rain = 0
KSLS 130612Z 24012KT M05/M06 A3019 RMK A01 T10481064  RH  089%=      5-min Rain = 0
KSLS 130613Z 25013KT M05/M06 A3019 RMK A01 T10481064  RH  089%=      5-min Rain = 0
KSLS 130614Z 25012KT M05/M06 A3019 RMK A01 T10481063  RH  089%=      5-min Rain = 0
KSLS 130615Z 25012KT M05/M06 A3019 RMK A01 T10471063  RH  089%=      5-min Rain = 0
KSLS 130616Z 25012KT M05/M06 A3019 RMK A01 T10471063  RH  088%=      5-min Rain = 0
KSLS 130617Z 25012KT M05/M06 A3019 RMK A01 T10471063  RH  088%=      5-min Rain = 0
KSLS 130618Z 25012KT M05/M06 A3019 RMK A01 T10461063  RH  088%=      5-min Rain = 0
KSLS 130619Z 25012KT M05/M06 A3019 RMK A01 T10471064  RH  088%=      5-min Rain = 0
KSLS 130620Z 25012KT M05/M07 A3019 RMK A01 T10471065  RH  088%=      5-min Rain = 0
KSLS 130621Z 25012KT M05/M07 A3019 RMK A01 T10481065  RH  088%=      5-min Rain = 0
KSLS 130622Z 25012KT M05/M06 A3019 RMK A01 T10481064  RH  088%=      5-min Rain = 0
KSLS 130623Z 25012KT M05/M06 A3019 RMK A01 T10471063  RH  088%=      5-min Rain = 0
KSLS 130624Z 25012KT M05/M06 A3019 RMK A01 T10461062  RH  088%=      5-min Rain = 0
KSLS 130625Z 25012KT M05/M06 A3019 RMK A01 T10461063  RH  088%=      5-min Rain = 0
KSLS 130626Z 25012KT M05/M06 A3019 RMK A01 T10451063  RH  088%=      5-min Rain = 0
KSLS 130627Z 24011KT M05/M07 A3019 RMK A01 T10471066  RH  087%=      5-min Rain = 0
KSLS 130628Z 25011KT M05/M07 A3019 RMK A01 T10491067  RH  087%=      5-min Rain = 0
KSLS 130629Z 25012KT M05/M07 A3018 RMK A01 T10501069  RH  087%=      5-min Rain = 0
KSLS 130630Z 25011KT M05/M07 A3019 RMK A01 T10521070  RH  087%=      5-min Rain = 0
KSLS 130631Z 25011KT M05/M07 A3019 RMK A01 T10531070  RH  088%=      5-min Rain = 0
KSLS 130632Z 25011KT M05/M07 A3019 RMK A01 T10531069  RH  089%=      5-min Rain = 0
KSLS 130633Z 25011KT M05/M07 A3019 RMK A01 T10531068  RH  089%=      5-min Rain = 0
KSLS 130634Z 25011KT M05/M07 A3019 RMK A01 T10521067  RH  089%=      5-min Rain = 0
KSLS 130635Z 25011KT M05/M07 A3019 RMK A01 T10511067  RH  089%=      5-min Rain = 0
KSLS 130636Z 25011KT M05/M07 A3018 RMK A01 T10511067  RH  089%=      5-min Rain = 0
KSLS 130637Z 25010KT M05/M07 A3018 RMK A01 T10511066  RH  089%=      5-min Rain = 0
KSLS 130638Z 25011KT M05/M07 A3018 RMK A01 T10501066  RH  089%=      5-min Rain = 0
KSLS 130639Z 25012KT M05/M06 A3018 RMK A01 T10491064  RH  089%=      5-min Rain = 0
KSLS 130640Z 25012KT M05/M06 A3018 RMK A01 T10471063  RH  089%=      5-min Rain = 0
KSLS 130641Z 25012KT M05/M06 A3018 RMK A01 T10461062  RH  089%=      5-min Rain = 0
KSLS 130642Z 25013KT M05/M06 A3018 RMK A01 T10451062  RH  088%=      5-min Rain = 0
KSLS 130643Z 25013KT M05/M06 A3018 RMK A01 T10451062  RH  088%=      5-min Rain = 0
KSLS 130644Z 25013KT M05/M06 A3018 RMK A01 T10451063  RH  087%=      5-min Rain = 0
KSLS 130645Z 25013KT M05/M06 A3018 RMK A01 T10451063  RH  087%=      5-min Rain = 0
KSLS 130646Z 25013KT M05/M06 A3018 RMK A01 T10451063  RH  087%=      5-min Rain = 0
KSLS 130647Z 25013KT M05/M06 A3018 RMK A01 T10451063  RH  087%=      5-min Rain = 0
KSLS 130648Z 25012KT M05/M06 A3018 RMK A01 T10451063  RH  087%=      5-min Rain = 0
KSLS 130649Z 25012KT M05/M07 A3018 RMK A01 T10461065  RH  087%=      5-min Rain = 0
KSLS 130650Z 25012KT M05/M07 A3018 RMK A01 T10461065  RH  087%=      5-min Rain = 0
KSLS 130651Z 25012KT M05/M07 A3018 RMK A01 T10471066  RH  087%=      5-min Rain = 0
KSLS 130652Z 25011KT M05/M07 A3018 RMK A01 T10471065  RH  087%=      5-min Rain = 0
KSLS 130653Z 25012KT M05/M07 A3019 RMK A01 T10471065  RH  087%=      5-min Rain = 0
KSLS 130654Z 25011KT M05/M07 A3019 RMK A01 T10471065  RH  087%=      5-min Rain = 0
KSLS 130655Z 25011KT M05/M07 A3019 RMK A01 T10471066  RH  087%=      5-min Rain = 0
KSLS 130656Z 25011KT M05/M07 A3019 RMK A01 T10491069  RH  086%=      5-min Rain = 0
KSLS 130657Z 25010KT M05/M07 A3019 RMK A01 T10521072  RH  086%=      5-min Rain = 0
KSLS 130658Z 24010KT M05/M07 A3019 RMK A01 T10541074  RH  086%=      5-min Rain = 0
KSLS 130659Z 24009KT M06/M08 A3019 RMK A01 T10561075  RH  087%=      5-min Rain = 0
KSLS 130700Z 24009KT M06/M08 A3019 RMK A01 T10581076  RH  087%=      5-min Rain = 0
KSLS 130701Z 24009KT M06/M08 A3019 RMK A01 T10591076  RH  088%=      5-min Rain = 0
KSLS 130702Z 24010KT M06/M08 A3019 RMK A01 T10591076  RH  088%=      5-min Rain = 0
KSLS 130703Z 24009KT M06/M08 A3019 RMK A01 T10601077  RH  088%=      5-min Rain = 0
KSLS 130704Z 24010KT M06/M08 A3018 RMK A01 T10611076  RH  089%=      5-min Rain = 0
KSLS 130705Z 24010KT M06/M08 A3018 RMK A01 T10611077  RH  089%=      5-min Rain = 0
KSLS 130706Z 24010KT M06/M08 A3018 RMK A01 T10621078  RH  089%=      5-min Rain = 0
KSLS 130707Z 24010KT M06/M08 A3019 RMK A01 T10631079  RH  088%=      5-min Rain = 0
KSLS 130708Z 25010KT M06/M08 A3019 RMK A01 T10641079  RH  089%=      5-min Rain = 0
KSLS 130709Z 25010KT M06/M08 A3019 RMK A01 T10641079  RH  089%=      5-min Rain = 0
KSLS 130710Z 24010KT M06/M08 A3019 RMK A01 T10641079  RH  089%=      5-min Rain = 0
KSLS 130711Z 24010KT M07/M08 A3019 RMK A01 T10651080  RH  089%=      5-min Rain = 0
KSLS 130712Z 24010KT M07/M08 A3019 RMK A01 T10651080  RH  089%=      5-min Rain = 0
KSLS 130713Z 24010KT M07/M08 A3019 RMK A01 T10651080  RH  089%=      5-min Rain = 0
KSLS 130714Z 24010KT M07/M08 A3019 RMK A01 T10651080  RH  089%=      5-min Rain = 0
KSLS 130715Z 24010KT M07/M08 A3019 RMK A01 T10661081  RH  089%=      5-min Rain = 0
KSLS 130716Z 24010KT M07/M08 A3019 RMK A01 T10671082  RH  089%=      5-min Rain = 0
KSLS 130717Z 24011KT M07/M08 A3019 RMK A01 T10671082  RH  089%=      5-min Rain = 0
KSLS 130718Z 24011KT M07/M08 A3019 RMK A01 T10671082  RH  089%=      5-min Rain = 0
KSLS 130719Z 24011KT M07/M08 A3019 RMK A01 T10671082  RH  089%=      5-min Rain = 0
KSLS 130720Z 24011KT M07/M08 A3018 RMK A01 T10671082  RH  090%=      5-min Rain = 0
KSLS 130721Z 24011KT M07/M08 A3018 RMK A01 T10671082  RH  090%=      5-min Rain = 0
KSLS 130722Z 24011KT M07/M08 A3018 RMK A01 T10671082  RH  090%=      5-min Rain = 0
KSLS 130723Z 24011KT M07/M08 A3018 RMK A01 T10671081  RH  090%=      5-min Rain = 0
KSLS 130724Z 24011KT M07/M08 A3018 RMK A01 T10671081  RH  090%=      5-min Rain = 0
KSLS 130725Z 25011KT M07/M08 A3019 RMK A01 T10661080  RH  090%=      5-min Rain = 0
KSLS 130726Z 25011KT M07/M08 A3019 RMK A01 T10661080  RH  090%=      5-min Rain = 0
KSLS 130727Z 25011KT M07/M08 A3019 RMK A01 T10661081  RH  089%=      5-min Rain = 0
KSLS 130728Z 25012KT M07/M08 A3018 RMK A01 T10661081  RH  090%=      5-min Rain = 0
KSLS 130729Z 25012KT M07/M08 A3019 RMK A01 T10661080  RH  090%=      5-min Rain = 0
KSLS 130730Z 25012KT M07/M08 A3019 RMK A01 T10651078  RH  090%=      5-min Rain = 0
KSLS 130731Z 25011KT M06/M08 A3019 RMK A01 T10641078  RH  090%=      5-min Rain = 0
KSLS 130732Z 25011KT M06/M08 A3019 RMK A01 T10631077  RH  090%=      5-min Rain = 0
KSLS 130733Z 25012KT M06/M08 A3019 RMK A01 T10611075  RH  090%=      5-min Rain = 0
KSLS 130734Z 25012KT M06/M07 A3019 RMK A01 T10591073  RH  090%=      5-min Rain = 0
KSLS 130735Z 25012KT M06/M07 A3018 RMK A01 T10571072  RH  090%=      5-min Rain = 0
KSLS 130736Z 25012KT M06/M07 A3018 RMK A01 T10561072  RH  089%=      5-min Rain = 0
KSLS 130737Z 25012KT M06/M07 A3018 RMK A01 T10561073  RH  088%=      5-min Rain = 0
KSLS 130738Z 25012KT M06/M07 A3018 RMK A01 T10551073  RH  088%=      5-min Rain = 0
KSLS 130739Z 25012KT M06/M07 A3018 RMK A01 T10561074  RH  087%=      5-min Rain = 0
KSLS 130740Z 25011KT M06/M07 A3018 RMK A01 T10561074  RH  087%=      5-min Rain = 0
KSLS 130741Z 25011KT M05/M07 A3018 RMK A01 T10541072  RH  088%=      5-min Rain = 0
KSLS 130742Z 25011KT M05/M07 A3018 RMK A01 T10531071  RH  087%=      5-min Rain = 0
KSLS 130743Z 25012KT M05/M07 A3018 RMK A01 T10521070  RH  087%=      5-min Rain = 0
KSLS 130744Z 25013KT M05/M07 A3018 RMK A01 T10491068  RH  087%=      5-min Rain = 0
KSLS 130745Z 25014KT M05/M07 A3018 RMK A01 T10481068  RH  086%=      5-min Rain = 0
KSLS 130746Z 25014KT M05/M07 A3018 RMK A01 T10471068  RH  085%=      5-min Rain = 0
KSLS 130747Z 25014KT M05/M07 A3018 RMK A01 T10461068  RH  084%=      5-min Rain = 0
KSLS 130748Z 25013KT M05/M07 A3018 RMK A01 T10461069  RH  084%=      5-min Rain = 0
KSLS 130749Z 25013KT M05/M07 A3018 RMK A01 T10461070  RH  083%=      5-min Rain = 0
KSLS 130750Z 25013KT M05/M07 A3018 RMK A01 T10471070  RH  084%=      5-min Rain = 0
KSLS 130751Z 25014KT M05/M07 A3018 RMK A01 T10461069  RH  084%=      5-min Rain = 0
KSLS 130752Z 25014KT M05/M07 A3018 RMK A01 T10451070  RH  083%=      5-min Rain = 0
KSLS 130753Z 25014KT M05/M07 A3018 RMK A01 T10451070  RH  083%=      5-min Rain = 0
KSLS 130754Z 25013KT M05/M07 A3018 RMK A01 T10451070  RH  083%=      5-min Rain = 0
KSLS 130755Z 25014KT M05/M07 A3018 RMK A01 T10451070  RH  083%=      5-min Rain = 0
KSLS 130756Z 25013KT M05/M07 A3018 RMK A01 T10451070  RH  083%=      5-min Rain = 0
KSLS 130757Z 25013KT M05/M07 A3018 RMK A01 T10451070  RH  083%=      5-min Rain = 0
KSLS 130758Z 25013KT M05/M07 A3018 RMK A01 T10451070  RH  082%=      5-min Rain = 0
KSLS 130759Z 25013KT M05/M07 A3018 RMK A01 T10451071  RH  082%=      5-min Rain = 0
KSLS 130800Z 25013KT M05/M07 A3018 RMK A01 T10451071  RH  082%=      5-min Rain = 0
KSLS 130801Z 25013KT M05/M07 A3018 RMK A01 T10451071  RH  082%=      5-min Rain = 0
KSLS 130802Z 25014KT M05/M07 A3018 RMK A01 T10451072  RH  082%=      5-min Rain = 0
KSLS 130803Z 25014KT M05/M07 A3018 RMK A01 T10461073  RH  082%=      5-min Rain = 0
KSLS 130804Z 25015KT M05/M07 A3018 RMK A01 T10461072  RH  082%=      5-min Rain = 0
KSLS 130805Z 25015KT M05/M07 A3018 RMK A01 T10451071  RH  082%=      5-min Rain = 0
KSLS 130806Z 25014KT M04/M07 A3018 RMK A01 T10441071  RH  081%=      5-min Rain = 0
KSLS 130807Z 25014KT M04/M07 A3018 RMK A01 T10431071  RH  081%=      5-min Rain = 0
KSLS 130808Z 25014KT M04/M07 A3018 RMK A01 T10431071  RH  081%=      5-min Rain = 0
KSLS 130809Z 25014KT M04/M07 A3018 RMK A01 T10421071  RH  080%=      5-min Rain = 0
KSLS 130810Z 25014KT M04/M07 A3018 RMK A01 T10411070  RH  080%=      5-min Rain = 0
KSLS 130811Z 25014KT M04/M07 A3018 RMK A01 T10401071  RH  080%=      5-min Rain = 0
KSLS 130812Z 25014KT M04/M07 A3018 RMK A01 T10401071  RH  079%=      5-min Rain = 0
KSLS 130813Z 25014KT M04/M07 A3018 RMK A01 T10401071  RH  079%=      5-min Rain = 0
KSLS 130814Z 25014KT M04/M07 A3018 RMK A01 T10401072  RH  079%=      5-min Rain = 0
KSLS 130815Z 25013KT M04/M07 A3018 RMK A01 T10401072  RH  079%=      5-min Rain = 0
KSLS 130816Z 25013KT M04/M07 A3018 RMK A01 T10401072  RH  079%=      5-min Rain = 0
KSLS 130817Z 25013KT M04/M07 A3018 RMK A01 T10411072  RH  079%=      5-min Rain = 0
KSLS 130818Z 25014KT M04/M07 A3018 RMK A01 T10411072  RH  079%=      5-min Rain = 0
KSLS 130819Z 25014KT M04/M07 A3018 RMK A01 T10411072  RH  079%=      5-min Rain = 0
KSLS 130820Z 25013KT M04/M07 A3018 RMK A01 T10401072  RH  078%=      5-min Rain = 0
KSLS 130821Z 25013KT M04/M07 A3018 RMK A01 T10401073  RH  078%=      5-min Rain = 0
KSLS 130822Z 25013KT M04/M07 A3018 RMK A01 T10411073  RH  078%=      5-min Rain = 0
KSLS 130823Z 25013KT M04/M07 A3018 RMK A01 T10411073  RH  078%=      5-min Rain = 0
KSLS 130824Z 25014KT M04/M07 A3018 RMK A01 T10411073  RH  078%=      5-min Rain = 0
KSLS 130825Z 25013KT M04/M07 A3018 RMK A01 T10411073  RH  078%=      5-min Rain = 0
KSLS 130826Z 25014KT M04/M07 A3018 RMK A01 T10411073  RH  078%=      5-min Rain = 0
KSLS 130827Z 25015KT M04/M07 A3018 RMK A01 T10411073  RH  079%=      5-min Rain = 0
KSLS 130828Z 25014KT M04/M07 A3018 RMK A01 T10411072  RH  078%=      5-min Rain = 0
KSLS 130829Z 25014KT M04/M07 A3018 RMK A01 T10401073  RH  078%=      5-min Rain = 0
KSLS 130830Z 25014KT M04/M07 A3018 RMK A01 T10401073  RH  078%=      5-min Rain = 0
KSLS 130831Z 25014KT M04/M07 A3018 RMK A01 T10401073  RH  078%=      5-min Rain = 0
KSLS 130832Z 25014KT M04/M07 A3018 RMK A01 T10401073  RH  078%=      5-min Rain = 0
KSLS 130833Z 25014KT M04/M07 A3018 RMK A01 T10401073  RH  078%=      5-min Rain = 0
KSLS 130834Z 25014KT M04/M07 A3018 RMK A01 T10391072  RH  078%=      5-min Rain = 0
KSLS 130835Z 25014KT M04/M07 A3018 RMK A01 T10391072  RH  078%=      5-min Rain = 0
KSLS 130836Z 25013KT M04/M07 A3018 RMK A01 T10391073  RH  077%=      5-min Rain = 0
KSLS 130837Z 25013G18KT M04/M07 A3018 RMK A01 T10391072  RH  078%=      5-min Rain = 0
KSLS 130838Z 25014KT M04/M07 A3018 RMK A01 T10391072  RH  078%=      5-min Rain = 0
KSLS 130839Z 25014KT M04/M07 A3018 RMK A01 T10381072  RH  077%=      5-min Rain = 0
KSLS 130840Z 25015KT M04/M07 A3018 RMK A01 T10381072  RH  077%=      5-min Rain = 0
KSLS 130841Z 25014KT M04/M07 A3018 RMK A01 T10381072  RH  077%=      5-min Rain = 0
KSLS 130842Z 25014KT M04/M07 A3018 RMK A01 T10381072  RH  077%=      5-min Rain = 0
KSLS 130843Z 25014KT M04/M07 A3018 RMK A01 T10381073  RH  077%=      5-min Rain = 0
KSLS 130844Z 25014KT M04/M07 A3018 RMK A01 T10391074  RH  077%=      5-min Rain = 0
KSLS 130845Z 25014KT M04/M07 A3018 RMK A01 T10401074  RH  077%=      5-min Rain = 0
KSLS 130846Z 25014KT M04/M07 A3018 RMK A01 T10391073  RH  077%=      5-min Rain = 0
KSLS 130847Z 25014KT M04/M07 A3018 RMK A01 T10391074  RH  077%=      5-min Rain = 0
KSLS 130848Z 25014KT M04/M07 A3018 RMK A01 T10391074  RH  077%=      5-min Rain = 0
KSLS 130849Z 25014KT M04/M07 A3018 RMK A01 T10391074  RH  077%=      5-min Rain = 0
KSLS 130850Z 25014KT M04/M07 A3018 RMK A01 T10391074  RH  077%=      5-min Rain = 0
KSLS 130851Z 25014KT M04/M07 A3017 RMK A01 T10391074  RH  077%=      5-min Rain = 0
KSLS 130852Z 25014KT M04/M07 A3018 RMK A01 T10391074  RH  077%=      5-min Rain = 0
KSLS 130853Z 25013KT M04/M07 A3017 RMK A01 T10391074  RH  076%=      5-min Rain = 0
KSLS 130854Z 25013KT M04/M07 A3017 RMK A01 T10391074  RH  076%=      5-min Rain = 0
KSLS 130855Z 25014KT M04/M07 A3017 RMK A01 T10381074  RH  076%=      5-min Rain = 0
KSLS 130856Z 25013KT M04/M07 A3017 RMK A01 T10381074  RH  076%=      5-min Rain = 0
KSLS 130857Z 25013KT M04/M07 A3017 RMK A01 T10381074  RH  076%=      5-min Rain = 0
KSLS 130858Z 25014KT M04/M07 A3017 RMK A01 T10381074  RH  076%=      5-min Rain = 0
KSLS 130859Z 25013KT M04/M07 A3017 RMK A01 T10381074  RH  076%=      5-min Rain = 0
KSLS 130900Z 25013KT M04/M07 A3017 RMK A01 T10381074  RH  076%=      5-min Rain = 0
KSLS 130901Z 25013KT M04/M07 A3017 RMK A01 T10381074  RH  076%=      5-min Rain = 0
KSLS 130902Z 25013KT M04/M07 A3017 RMK A01 T10381074  RH  076%=      5-min Rain = 0
KSLS 130903Z 25013KT M04/M07 A3017 RMK A01 T10371073  RH  076%=      5-min Rain = 0
KSLS 130904Z 25014KT M04/M07 A3017 RMK A01 T10371073  RH  076%=      5-min Rain = 0
KSLS 130905Z 25014KT M04/M07 A3017 RMK A01 T10361073  RH  076%=      5-min Rain = 0
KSLS 130906Z 25014KT M04/M07 A3017 RMK A01 T10361073  RH  076%=      5-min Rain = 0
KSLS 130907Z 25014KT M04/M07 A3017 RMK A01 T10361073  RH  076%=      5-min Rain = 0
KSLS 130908Z 25014KT M04/M07 A3017 RMK A01 T10361074  RH  075%=      5-min Rain = 0
KSLS 130909Z 25014KT M04/M07 A3017 RMK A01 T10371074  RH  075%=      5-min Rain = 0
KSLS 130910Z 25013KT M04/M08 A3017 RMK A01 T10391075  RH  076%=      5-min Rain = 0
KSLS 130911Z 25012KT M04/M08 A3017 RMK A01 T10401076  RH  076%=      5-min Rain = 0
KSLS 130912Z 25011KT M04/M08 A3017 RMK A01 T10421076  RH  077%=      5-min Rain = 0
KSLS 130913Z 24011KT M04/M08 A3017 RMK A01 T10421076  RH  077%=      5-min Rain = 0
KSLS 130914Z 24011KT M04/M08 A3017 RMK A01 T10431076  RH  077%=      5-min Rain = 0
KSLS 130915Z 25012KT M04/M08 A3017 RMK A01 T10441077  RH  077%=      5-min Rain = 0
KSLS 130916Z 25012KT M04/M08 A3017 RMK A01 T10441078  RH  078%=      5-min Rain = 0
KSLS 130917Z 24012KT M05/M08 A3017 RMK A01 T10451077  RH  078%=      5-min Rain = 0
KSLS 130918Z 25012KT M05/M08 A3017 RMK A01 T10451078  RH  078%=      5-min Rain = 0
KSLS 130919Z 25012KT M05/M08 A3017 RMK A01 T10451078  RH  078%=      5-min Rain = 0
KSLS 130920Z 24012KT M05/M08 A3017 RMK A01 T10461079  RH  078%=      5-min Rain = 0
KSLS 130921Z 24012KT M05/M08 A3016 RMK A01 T10471080  RH  078%=      5-min Rain = 0
KSLS 130922Z 24013KT M05/M08 A3016 RMK A01 T10481081  RH  078%=      5-min Rain = 0
KSLS 130923Z 24012KT M05/M08 A3016 RMK A01 T10501082  RH  078%=      5-min Rain = 0
KSLS 130924Z 24013KT M05/M08 A3016 RMK A01 T10511082  RH  079%=      5-min Rain = 0
KSLS 130925Z 24013KT M05/M08 A3016 RMK A01 T10521082  RH  079%=      5-min Rain = 0
KSLS 130926Z 24013KT M05/M08 A3016 RMK A01 T10521083  RH  079%=      5-min Rain = 0
KSLS 130927Z 25014KT M05/M08 A3016 RMK A01 T10521082  RH  080%=      5-min Rain = 0
KSLS 130928Z 25014KT M05/M08 A3016 RMK A01 T10521082  RH  080%=      5-min Rain = 0
KSLS 130929Z 25013KT M05/M08 A3016 RMK A01 T10521082  RH  079%=      5-min Rain = 0
KSLS 130930Z 25013KT M05/M08 A3016 RMK A01 T10521082  RH  079%=      5-min Rain = 0
KSLS 130931Z 25013KT M05/M08 A3016 RMK A01 T10521083  RH  079%=      5-min Rain = 0
KSLS 130932Z 25014KT M05/M08 A3016 RMK A01 T10521082  RH  079%=      5-min Rain = 0
KSLS 130933Z 25014KT M05/M08 A3016 RMK A01 T10511082  RH  079%=      5-min Rain = 0
KSLS 130934Z 25013KT M05/M08 A3016 RMK A01 T10511083  RH  079%=      5-min Rain = 0
KSLS 130935Z 25013KT M05/M08 A3016 RMK A01 T10511083  RH  078%=      5-min Rain = 0
KSLS 130936Z 25013KT M05/M08 A3016 RMK A01 T10521083  RH  079%=      5-min Rain = 0
KSLS 130937Z 25013KT M05/M08 A3016 RMK A01 T10521083  RH  079%=      5-min Rain = 0
KSLS 130938Z 25013KT M05/M08 A3016 RMK A01 T10521083  RH  079%=      5-min Rain = 0
KSLS 130939Z 25012KT M05/M08 A3016 RMK A01 T10511083  RH  078%=      5-min Rain = 0
KSLS 130940Z 25013KT M05/M08 A3016 RMK A01 T10521084  RH  078%=      5-min Rain = 0
KSLS 130941Z 25012KT M05/M08 A3016 RMK A01 T10521083  RH  079%=      5-min Rain = 0
KSLS 130942Z 25012KT M05/M08 A3016 RMK A01 T10511082  RH  079%=      5-min Rain = 0
KSLS 130943Z 25012KT M05/M08 A3016 RMK A01 T10511083  RH  078%=      5-min Rain = 0
KSLS 130944Z 25013KT M05/M08 A3015 RMK A01 T10501083  RH  078%=      5-min Rain = 0
KSLS 130945Z 25013KT M05/M08 A3015 RMK A01 T10491082  RH  078%=      5-min Rain = 0
KSLS 130946Z 25013KT M05/M08 A3015 RMK A01 T10481082  RH  078%=      5-min Rain = 0
KSLS 130947Z 25014KT M05/M08 A3015 RMK A01 T10481081  RH  077%=      5-min Rain = 0
KSLS 130948Z 25014KT M05/M08 A3015 RMK A01 T10471081  RH  077%=      5-min Rain = 0
KSLS 130949Z 25014KT M05/M08 A3015 RMK A01 T10471081  RH  077%=      5-min Rain = 0
KSLS 130950Z 25014KT M05/M08 A3015 RMK A01 T10471082  RH  077%=      5-min Rain = 0
KSLS 130951Z 25014KT M05/M08 A3015 RMK A01 T10481082  RH  077%=      5-min Rain = 0
KSLS 130952Z 25014KT M05/M08 A3015 RMK A01 T10481082  RH  077%=      5-min Rain = 0
KSLS 130953Z 25014KT M05/M08 A3015 RMK A01 T10471081  RH  077%=      5-min Rain = 0
KSLS 130954Z 25014KT M05/M08 A3015 RMK A01 T10461081  RH  077%=      5-min Rain = 0
KSLS 130955Z 25014KT M05/M08 A3015 RMK A01 T10461081  RH  076%=      5-min Rain = 0
KSLS 130956Z 25014KT M05/M08 A3015 RMK A01 T10461081  RH  076%=      5-min Rain = 0
KSLS 130957Z 25014KT M05/M08 A3015 RMK A01 T10471082  RH  076%=      5-min Rain = 0
KSLS 130958Z 25014KT M05/M08 A3015 RMK A01 T10471082  RH  076%=      5-min Rain = 0
KSLS 130959Z 25014KT M05/M08 A3015 RMK A01 T10471082  RH  077%=      5-min Rain = 0
KSLS 131000Z 25014KT M05/M08 A3015 RMK A01 T10471081  RH  077%=      5-min Rain = 0
KSLS 131001Z 25013KT M05/M08 A3015 RMK A01 T10471082  RH  077%=      5-min Rain = 0
KSLS 131002Z 25013KT M05/M08 A3015 RMK A01 T10471082  RH  077%=      5-min Rain = 0
KSLS 131003Z 25014KT M05/M08 A3015 RMK A01 T10471082  RH  077%=      5-min Rain = 0
KSLS 131004Z 25013KT M05/M08 A3015 RMK A01 T10471082  RH  077%=      5-min Rain = 0
KSLS 131005Z 25012KT M05/M08 A3015 RMK A01 T10471082  RH  076%=      5-min Rain = 0
KSLS 131006Z 25013KT M05/M08 A3015 RMK A01 T10471082  RH  076%=      5-min Rain = 0
KSLS 131007Z 25013KT M05/M08 A3015 RMK A01 T10471082  RH  076%=      5-min Rain = 0
KSLS 131008Z 25012KT M05/M08 A3015 RMK A01 T10471082  RH  076%=      5-min Rain = 0
KSLS 131009Z 25013KT M05/M08 A3014 RMK A01 T10471082  RH  076%=      5-min Rain = 0
KSLS 131010Z 25012KT M05/M08 A3014 RMK A01 T10461081  RH  076%=      5-min Rain = 0
KSLS 131011Z 25013KT M05/M08 A3015 RMK A01 T10461081  RH  076%=      5-min Rain = 0
KSLS 131012Z 25013KT M05/M08 A3015 RMK A01 T10451081  RH  076%=      5-min Rain = 0
KSLS 131013Z 25013KT M04/M08 A3015 RMK A01 T10441080  RH  076%=      5-min Rain = 0
KSLS 131014Z 25013KT M04/M08 A3014 RMK A01 T10441081  RH  076%=      5-min Rain = 0
KSLS 131015Z 25014KT M04/M08 A3014 RMK A01 T10441080  RH  076%=      5-min Rain = 0
KSLS 131016Z 25013KT M04/M08 A3014 RMK A01 T10431080  RH  076%=      5-min Rain = 0
KSLS 131017Z 25013KT M04/M08 A3014 RMK A01 T10431080  RH  075%=      5-min Rain = 0
KSLS 131018Z 25013KT M04/M08 A3014 RMK A01 T10421080  RH  075%=      5-min Rain = 0
KSLS 131019Z 25013KT M04/M08 A3014 RMK A01 T10421079  RH  075%=      5-min Rain = 0
KSLS 131020Z 25014KT M04/M08 A3014 RMK A01 T10411079  RH  075%=      5-min Rain = 0
KSLS 131021Z 25014KT M04/M08 A3014 RMK A01 T10411079  RH  075%=      5-min Rain = 0
KSLS 131022Z 25013KT M04/M08 A3014 RMK A01 T10411079  RH  075%=      5-min Rain = 0
KSLS 131023Z 25013KT M04/M08 A3014 RMK A01 T10401078  RH  075%=      5-min Rain = 0
KSLS 131024Z 25013KT M04/M08 A3014 RMK A01 T10401079  RH  075%=      5-min Rain = 0
KSLS 131025Z 25013KT M04/M08 A3014 RMK A01 T10411079  RH  075%=      5-min Rain = 0
KSLS 131026Z 25012KT M04/M08 A3014 RMK A01 T10421080  RH  075%=      5-min Rain = 0
KSLS 131027Z 25012KT M04/M08 A3014 RMK A01 T10431079  RH  076%=      5-min Rain = 0
KSLS 131028Z 25012KT M04/M08 A3014 RMK A01 T10421079  RH  076%=      5-min Rain = 0
KSLS 131029Z 25012KT M04/M08 A3013 RMK A01 T10421079  RH  076%=      5-min Rain = 0
KSLS 131030Z 25012KT M04/M08 A3013 RMK A01 T10421078  RH  076%=      5-min Rain = 0
KSLS 131031Z 25012KT M04/M08 A3013 RMK A01 T10421079  RH  076%=      5-min Rain = 0
KSLS 131032Z 25012KT M04/M08 A3013 RMK A01 T10431079  RH  076%=      5-min Rain = 0
KSLS 131033Z 24012KT M04/M08 A3013 RMK A01 T10431080  RH  076%=      5-min Rain = 0
KSLS 131034Z 24012KT M05/M08 A3013 RMK A01 T10451081  RH  076%=      5-min Rain = 0
KSLS 131035Z 24012KT M05/M08 A3013 RMK A01 T10451081  RH  076%=      5-min Rain = 0
KSLS 131036Z 24013KT M05/M08 A3013 RMK A01 T10461081  RH  076%=      5-min Rain = 0
KSLS 131037Z 24013KT M05/M08 A3013 RMK A01 T10461081  RH  077%=      5-min Rain = 0
KSLS 131038Z 24013KT M05/M08 A3013 RMK A01 T10461080  RH  077%=      5-min Rain = 0
KSLS 131039Z 24013KT M05/M08 A3013 RMK A01 T10461080  RH  077%=      5-min Rain = 0
KSLS 131040Z 24013KT M05/M08 A3013 RMK A01 T10461080  RH  077%=      5-min Rain = 0
KSLS 131041Z 24014KT M05/M08 A3013 RMK A01 T10461080  RH  077%=      5-min Rain = 0
KSLS 131042Z 24014KT M05/M08 A3013 RMK A01 T10451079  RH  077%=      5-min Rain = 0
KSLS 131043Z 24014KT M04/M08 A3013 RMK A01 T10441078  RH  077%=      5-min Rain = 0
KSLS 131044Z 25013KT M04/M08 A3013 RMK A01 T10431078  RH  077%=      5-min Rain = 0
KSLS 131045Z 25013KT M04/M08 A3013 RMK A01 T10431078  RH  076%=      5-min Rain = 0
KSLS 131046Z 25013KT M04/M08 A3013 RMK A01 T10421078  RH  076%=      5-min Rain = 0
KSLS 131047Z 25013KT M04/M08 A3013 RMK A01 T10411077  RH  076%=      5-min Rain = 0
KSLS 131048Z 25013KT M04/M08 A3013 RMK A01 T10401077  RH  076%=      5-min Rain = 0
KSLS 131049Z 25013KT M04/M08 A3013 RMK A01 T10411078  RH  075%=      5-min Rain = 0
KSLS 131050Z 25014KT M04/M08 A3013 RMK A01 T10411078  RH  076%=      5-min Rain = 0
KSLS 131051Z 25012KT M04/M08 A3013 RMK A01 T10411078  RH  076%=      5-min Rain = 0
KSLS 131052Z 25012KT M04/M08 A3013 RMK A01 T10411078  RH  075%=      5-min Rain = 0
KSLS 131053Z 25012KT M04/M08 A3013 RMK A01 T10421078  RH  076%=      5-min Rain = 0
KSLS 131054Z 25012KT M04/M08 A3013 RMK A01 T10421078  RH  076%=      5-min Rain = 0
KSLS 131055Z 25012KT M04/M08 A3013 RMK A01 T10421078  RH  076%=      5-min Rain = 0
KSLS 131056Z 25012KT M04/M08 A3013 RMK A01 T10411077  RH  076%=      5-min Rain = 0
KSLS 131057Z 25013KT M04/M08 A3013 RMK A01 T10401077  RH  076%=      5-min Rain = 0
KSLS 131058Z 25012KT M04/M08 A3012 RMK A01 T10401077  RH  075%=      5-min Rain = 0
KSLS 131059Z 25012KT M04/M08 A3012 RMK A01 T10401077  RH  075%=      5-min Rain = 0
KSLS 131100Z 25012KT M04/M08 A3012 RMK A01 T10401077  RH  075%=      5-min Rain = 0
KSLS 131101Z 25012KT M04/M08 A3012 RMK A01 T10401077  RH  075%=      5-min Rain = 0
KSLS 131102Z 25013KT M04/M08 A3012 RMK A01 T10401078  RH  075%=      5-min Rain = 0
KSLS 131103Z 25012KT M04/M08 A3012 RMK A01 T10401077  RH  075%=      5-min Rain = 0
KSLS 131104Z 25013KT M04/M08 A3012 RMK A01 T10401077  RH  075%=      5-min Rain = 0
KSLS 131105Z 25012KT M04/M08 A3012 RMK A01 T10401077  RH  075%=      5-min Rain = 0
KSLS 131106Z 24012KT M04/M08 A3012 RMK A01 T10401078  RH  075%=      5-min Rain = 0
KSLS 131107Z 25012KT M04/M08 A3012 RMK A01 T10411078  RH  075%=      5-min Rain = 0
KSLS 131108Z 24013KT M04/M08 A3012 RMK A01 T10411078  RH  076%=      5-min Rain = 0
KSLS 131109Z 24013KT M04/M08 A3012 RMK A01 T10411078  RH  076%=      5-min Rain = 0
KSLS 131110Z 24012KT M04/M08 A3012 RMK A01 T10421078  RH  076%=      5-min Rain = 0
KSLS 131111Z 24012KT M04/M08 A3012 RMK A01 T10421079  RH  076%=      5-min Rain = 0
KSLS 131112Z 24012KT M04/M08 A3012 RMK A01 T10431079  RH  076%=      5-min Rain = 0
KSLS 131113Z 24012KT M04/M08 A3012 RMK A01 T10431079  RH  076%=      5-min Rain = 0
KSLS 131114Z 24013KT M04/M08 A3011 RMK A01 T10441080  RH  076%=      5-min Rain = 0
KSLS 131115Z 24013KT M05/M08 A3011 RMK A01 T10451080  RH  076%=      5-min Rain = 0
KSLS 131116Z 24013KT M05/M08 A3011 RMK A01 T10451080  RH  077%=      5-min Rain = 0
KSLS 131117Z 24013KT M05/M08 A3011 RMK A01 T10451080  RH  077%=      5-min Rain = 0
KSLS 131118Z 24013KT M05/M08 A3011 RMK A01 T10451080  RH  077%=      5-min Rain = 0
KSLS 131119Z 24014KT M05/M08 A3011 RMK A01 T10451079  RH  077%=      5-min Rain = 0
KSLS 131120Z 24014KT M05/M08 A3011 RMK A01 T10451079  RH  077%=      5-min Rain = 0
KSLS 131121Z 24014KT M04/M08 A3011 RMK A01 T10441079  RH  077%=      5-min Rain = 0
KSLS 131122Z 24015KT M04/M08 A3011 RMK A01 T10441078  RH  077%=      5-min Rain = 0
KSLS 131123Z 24014KT M04/M08 A301 RMK A01 T10431077  RH  077%=      5-min Rain = 0
KSLS 131124Z 24015KT M04/M08 A301 RMK A01 T10421077  RH  076%=      5-min Rain = 0
KSLS 131125Z 24015KT M04/M08 A301 RMK A01 T10421077  RH  076%=      5-min Rain = 0
KSLS 131126Z 24015KT M04/M08 A301 RMK A01 T10421078  RH  076%=      5-min Rain = 0
KSLS 131127Z 24015KT M04/M08 A301 RMK A01 T10421077  RH  076%=      5-min Rain = 0
KSLS 131128Z 24015KT M04/M08 A301 RMK A01 T10421077  RH  076%=      5-min Rain = 0
KSLS 131129Z 24014KT M04/M08 A301 RMK A01 T10421077  RH  076%=      5-min Rain = 0
KSLS 131130Z 24015KT M04/M08 A301 RMK A01 T10421077  RH  076%=      5-min Rain = 0
KSLS 131131Z 24015KT M04/M08 A301 RMK A01 T10411076  RH  077%=      5-min Rain = 0
KSLS 131132Z 24015KT M04/M08 A301 RMK A01 T10401076  RH  076%=      5-min Rain = 0
KSLS 131133Z 24015KT M04/M08 A301 RMK A01 T10401076  RH  076%=      5-min Rain = 0
KSLS 131134Z 24015KT M04/M08 A301 RMK A01 T10391075  RH  076%=      5-min Rain = 0
KSLS 131135Z 24016KT M04/M07 A301 RMK A01 T10381074  RH  076%=      5-min Rain = 0
KSLS 131136Z 24015KT M04/M07 A301 RMK A01 T10371074  RH  075%=      5-min Rain = 0
KSLS 131137Z 24015G20KT M04/M08 A301 RMK A01 T10371075  RH  075%=      5-min Rain = 0
KSLS 131138Z 24016KT M04/M07 A301 RMK A01 T10361074  RH  075%=      5-min Rain = 0
KSLS 131139Z 24016KT M04/M07 A301 RMK A01 T10361074  RH  075%=      5-min Rain = 0
KSLS 131140Z 24016KT M04/M07 A301 RMK A01 T10361074  RH  075%=      5-min Rain = 0
KSLS 131141Z 24016KT M04/M07 A301 RMK A01 T10361074  RH  075%=      5-min Rain = 0
KSLS 131142Z 24015KT M04/M07 A301 RMK A01 T10361074  RH  075%=      5-min Rain = 0
KSLS 131143Z 25015KT M04/M07 A3011 RMK A01 T10361074  RH  075%=      5-min Rain = 0
KSLS 131144Z 25016KT M04/M07 A3011 RMK A01 T10351073  RH  075%=      5-min Rain = 0
KSLS 131145Z 25015KT M03/M07 A3011 RMK A01 T10341073  RH  075%=      5-min Rain = 0
KSLS 131146Z 24015KT M03/M07 A3011 RMK A01 T10341073  RH  074%=      5-min Rain = 0
KSLS 131147Z 25015KT M03/M07 A301 RMK A01 T10341073  RH  074%=      5-min Rain = 0
KSLS 131148Z 24015KT M03/M07 A301 RMK A01 T10341073  RH  074%=      5-min Rain = 0
KSLS 131149Z 24014KT M03/M07 A301 RMK A01 T10341073  RH  075%=      5-min Rain = 0
KSLS 131150Z 25015KT M04/M07 A301 RMK A01 T10351073  RH  075%=      5-min Rain = 0
KSLS 131151Z 25016KT M04/M07 A301 RMK A01 T10351073  RH  075%=      5-min Rain = 0
KSLS 131152Z 25015KT M03/M07 A301 RMK A01 T10331072  RH  075%=      5-min Rain = 0
KSLS 131153Z 25015KT M03/M07 A301 RMK A01 T10331072  RH  074%=      5-min Rain = 0
KSLS 131154Z 25014KT M03/M07 A301 RMK A01 T10331072  RH  074%=      5-min Rain = 0
KSLS 131155Z 25015KT M03/M07 A3011 RMK A01 T10331072  RH  074%=      5-min Rain = 0
KSLS 131156Z 25014KT M03/M07 A3011 RMK A01 T10321071  RH  075%=      5-min Rain = 0
KSLS 131157Z 25014KT M03/M07 A3011 RMK A01 T10321072  RH  074%=      5-min Rain = 0
KSLS 131158Z 25014KT M03/M07 A3011 RMK A01 T10321071  RH  074%=      5-min Rain = 0
KSLS 131159Z 25014KT M03/M07 A3011 RMK A01 T10321072  RH  074%=      5-min Rain = 0
KSLS 131200Z 25014KT M03/M07 A301 RMK A01 T10321072  RH  074%=      5-min Rain = 0
KSLS 131201Z 25014KT M03/M07 A3011 RMK A01 T10311071  RH  074%=      5-min Rain = 0
KSLS 131202Z 25014KT M03/M07 A3011 RMK A01 T10301071  RH  073%=      5-min Rain = 0
KSLS 131203Z 25015G20KT M03/M07 A3011 RMK A01 T10301071  RH  073%=      5-min Rain = 0
KSLS 131204Z 25015KT M03/M07 A3011 RMK A01 T10301071  RH  073%=      5-min Rain = 0
KSLS 131205Z 24015KT M03/M07 A301 RMK A01 T10291070  RH  073%=      5-min Rain = 0
KSLS 131206Z 24014KT M03/M07 A3011 RMK A01 T10281070  RH  073%=      5-min Rain = 0
KSLS 131207Z 24015KT M03/M07 A3011 RMK A01 T10291071  RH  073%=      5-min Rain = 0
KSLS 131208Z 25015KT M03/M07 A3011 RMK A01 T10281070  RH  073%=      5-min Rain = 0
KSLS 131209Z 25015KT M03/M07 A3011 RMK A01 T10281070  RH  073%=      5-min Rain = 0
KSLS 131210Z 25015KT M03/M07 A3011 RMK A01 T10271069  RH  073%=      5-min Rain = 0
KSLS 131211Z 25015KT M03/M07 A3011 RMK A01 T10251069  RH  072%=      5-min Rain = 0
KSLS 131212Z 25016KT M03/M07 A3011 RMK A01 T10261069  RH  072%=      5-min Rain = 0
KSLS 131213Z 25016KT M03/M07 A3011 RMK A01 T10261070  RH  072%=      5-min Rain = 0
KSLS 131214Z 25015KT M03/M07 A3011 RMK A01 T10261069  RH  072%=      5-min Rain = 0
KSLS 131215Z 25015KT M03/M07 A3011 RMK A01 T10271070  RH  072%=      5-min Rain = 0
KSLS 131216Z 25015KT M03/M07 A3011 RMK A01 T10271070  RH  072%=      5-min Rain = 0
KSLS 131217Z 25015KT M03/M07 A3011 RMK A01 T10271070  RH  072%=      5-min Rain = 0
KSLS 131218Z 25014KT M03/M07 A3011 RMK A01 T10281071  RH  072%=      5-min Rain = 0
KSLS 131219Z 25015KT M03/M07 A3011 RMK A01 T10291071  RH  073%=      5-min Rain = 0
KSLS 131220Z 25014KT M03/M07 A3011 RMK A01 T10291071  RH  073%=      5-min Rain = 0
KSLS 131221Z 25014KT M03/M07 A3011 RMK A01 T10301072  RH  073%=      5-min Rain = 0
KSLS 131222Z 25015KT M03/M07 A3011 RMK A01 T10301072  RH  073%=      5-min Rain = 0
KSLS 131223Z 25014KT M03/M07 A3011 RMK A01 T10311072  RH  073%=      5-min Rain = 0
KSLS 131224Z 25014KT M03/M07 A3011 RMK A01 T10311072  RH  073%=      5-min Rain = 0
KSLS 131225Z 25014KT M03/M07 A3011 RMK A01 T10321073  RH  073%=      5-min Rain = 0
KSLS 131226Z 25015KT M03/M07 A3011 RMK A01 T10331073  RH  074%=      5-min Rain = 0
KSLS 131227Z 25014KT M03/M07 A3011 RMK A01 T10331073  RH  074%=      5-min Rain = 0
KSLS 131228Z 25014KT M03/M07 A3011 RMK A01 T10341074  RH  074%=      5-min Rain = 0
KSLS 131229Z 25013KT M04/M08 A3011 RMK A01 T10361075  RH  074%=      5-min Rain = 0
KSLS 131230Z 25013KT M04/M08 A3011 RMK A01 T10371075  RH  075%=      5-min Rain = 0
KSLS 131231Z 25013KT M04/M08 A3011 RMK A01 T10371075  RH  075%=      5-min Rain = 0
KSLS 131232Z 25013KT M04/M08 A3011 RMK A01 T10371075  RH  075%=      5-min Rain = 0
KSLS 131233Z 25013KT M04/M08 A3011 RMK A01 T10381076  RH  075%=      5-min Rain = 0
KSLS 131234Z 25013KT M04/M08 A3011 RMK A01 T10381076  RH  075%=      5-min Rain = 0
KSLS 131235Z 25013KT M04/M08 A3011 RMK A01 T10391076  RH  075%=      5-min Rain = 0
KSLS 131236Z 25012KT M04/M08 A3011 RMK A01 T10391076  RH  075%=      5-min Rain = 0
KSLS 131237Z 25012KT M04/M08 A3011 RMK A01 T10391077  RH  075%=      5-min Rain = 0
KSLS 131238Z 25013KT M04/M08 A3011 RMK A01 T10391077  RH  075%=      5-min Rain = 0
KSLS 131239Z 25013KT M04/M08 A3011 RMK A01 T10391077  RH  075%=      5-min Rain = 0
KSLS 131240Z 25013KT M04/M08 A3011 RMK A01 T10391077  RH  075%=      5-min Rain = 0
KSLS 131241Z 25014KT M04/M08 A3011 RMK A01 T10391078  RH  075%=      5-min Rain = 0
KSLS 131242Z 25014KT M04/M08 A3011 RMK A01 T10401078  RH  075%=      5-min Rain = 0
KSLS 131243Z 25015KT M04/M08 A3011 RMK A01 T10401078  RH  075%=      5-min Rain = 0
KSLS 131244Z 25014KT M04/M08 A3011 RMK A01 T10391078  RH  075%=      5-min Rain = 0
KSLS 131245Z 25014KT M04/M08 A3011 RMK A01 T10401078  RH  074%=      5-min Rain = 0
KSLS 131246Z 25014KT M04/M08 A3011 RMK A01 T10401079  RH  074%=      5-min Rain = 0
KSLS 131247Z 25016KT M04/M08 A3011 RMK A01 T10401079  RH  074%=      5-min Rain = 0
KSLS 131248Z 25015KT M04/M08 A3011 RMK A01 T10401079  RH  074%=      5-min Rain = 0
KSLS 131249Z 25015KT M04/M08 A3011 RMK A01 T10391079  RH  074%=      5-min Rain = 0
KSLS 131250Z 25014KT M04/M08 A3011 RMK A01 T10401080  RH  074%=      5-min Rain = 0
KSLS 131251Z 25015KT M04/M08 A3011 RMK A01 T10401080  RH  074%=      5-min Rain = 0
KSLS 131252Z 25014KT M04/M08 A301 RMK A01 T10411081  RH  074%=      5-min Rain = 0
KSLS 131253Z 25016KT M04/M08 A301 RMK A01 T10411081  RH  074%=      5-min Rain = 0
KSLS 131254Z 25014KT M04/M08 A301 RMK A01 T10421081  RH  074%=      5-min Rain = 0
KSLS 131255Z 25015KT M04/M08 A301 RMK A01 T10421082  RH  074%=      5-min Rain = 0
KSLS 131256Z 25015KT M04/M08 A301 RMK A01 T10431082  RH  074%=      5-min Rain = 0
KSLS 131257Z 25015KT M04/M08 A301 RMK A01 T10431082  RH  074%=      5-min Rain = 0
KSLS 131258Z 25014KT M04/M08 A301 RMK A01 T10441083  RH  074%=      5-min Rain = 0
KSLS 131259Z 25014KT M04/M08 A301 RMK A01 T10441083  RH  074%=      5-min Rain = 0
KSLS 131300Z 25014KT M04/M08 A301 RMK A01 T10441083  RH  074%=      5-min Rain = 0
KSLS 131301Z 25014KT M04/M08 A301 RMK A01 T10441083  RH  074%=      5-min Rain = 0
KSLS 131302Z 25014KT M05/M08 A301 RMK A01 T10451084  RH  074%=      5-min Rain = 0
KSLS 131303Z 25014KT M04/M08 A301 RMK A01 T10441084  RH  074%=      5-min Rain = 0
KSLS 131304Z 25013KT M04/M08 A301 RMK A01 T10441084  RH  074%=      5-min Rain = 0
KSLS 131305Z 25014KT M04/M08 A301 RMK A01 T10441084  RH  074%=      5-min Rain = 0
KSLS 131306Z 25014KT M05/M09 A301 RMK A01 T10451085  RH  074%=      5-min Rain = 0
KSLS 131307Z 25014KT M05/M09 A301 RMK A01 T10451085  RH  073%=      5-min Rain = 0
KSLS 131308Z 25014KT M05/M09 A301 RMK A01 T10451086  RH  073%=      5-min Rain = 0
KSLS 131309Z 25014KT M05/M09 A301 RMK A01 T10461086  RH  074%=      5-min Rain = 0
KSLS 131310Z 24014KT M05/M09 A301 RMK A01 T10461085  RH  074%=      5-min Rain = 0
KSLS 131311Z 24013KT M05/M09 A301 RMK A01 T10451086  RH  073%=      5-min Rain = 0
KSLS 131312Z 24013KT M05/M09 A301 RMK A01 T10461086  RH  073%=      5-min Rain = 0
KSLS 131313Z 24013KT M05/M09 A301 RMK A01 T10471087  RH  073%=      5-min Rain = 0
KSLS 131314Z 24013KT M05/M09 A301 RMK A01 T10481087  RH  074%=      5-min Rain = 0
KSLS 131315Z 25013KT M05/M09 A301 RMK A01 T10481086  RH  074%=      5-min Rain = 0
KSLS 131316Z 25013KT M05/M09 A301 RMK A01 T10471086  RH  074%=      5-min Rain = 0
KSLS 131317Z 25013KT M05/M09 A301 RMK A01 T10471086  RH  074%=      5-min Rain = 0
KSLS 131318Z 25013KT M05/M09 A301 RMK A01 T10461086  RH  074%=      5-min Rain = 0
KSLS 131319Z 25013KT M05/M09 A301 RMK A01 T10451086  RH  073%=      5-min Rain = 0
KSLS 131320Z 25013KT M05/M09 A301 RMK A01 T10451086  RH  073%=      5-min Rain = 0
KSLS 131321Z 25012KT M05/M09 A301 RMK A01 T10451086  RH  073%=      5-min Rain = 0
KSLS 131322Z 25012KT M05/M09 A301 RMK A01 T10451087  RH  073%=      5-min Rain = 0
KSLS 131323Z 25012KT M05/M09 A301 RMK A01 T10471088  RH  073%=      5-min Rain = 0
KSLS 131324Z 24013KT M05/M09 A301 RMK A01 T10471088  RH  073%=      5-min Rain = 0
KSLS 131325Z 24011KT M05/M09 A3009 RMK A01 T10491090  RH  073%=      5-min Rain = 0
KSLS 131326Z 24011KT M05/M09 A3009 RMK A01 T10521091  RH  074%=      5-min Rain = 0
KSLS 131327Z 24011KT M05/M09 A3009 RMK A01 T10531091  RH  075%=      5-min Rain = 0
KSLS 131328Z 24011KT M05/M09 A3009 RMK A01 T10531091  RH  075%=      5-min Rain = 0
KSLS 131329Z 25011KT M05/M09 A3009 RMK A01 T10531091  RH  075%=      5-min Rain = 0
KSLS 131330Z 25011KT M05/M09 A3009 RMK A01 T10531091  RH  075%=      5-min Rain = 0
KSLS 131331Z 24011KT M05/M09 A3009 RMK A01 T10521090  RH  075%=      5-min Rain = 0
KSLS 131332Z 24012KT M05/M09 A3009 RMK A01 T10521091  RH  074%=      5-min Rain = 0
KSLS 131333Z 24012KT M05/M09 A3009 RMK A01 T10521091  RH  074%=      5-min Rain = 0
KSLS 131334Z 24012KT M05/M09 A3009 RMK A01 T10521091  RH  074%=      5-min Rain = 0
KSLS 131335Z 24012KT M05/M09 A3009 RMK A01 T10521091  RH  074%=      5-min Rain = 0
KSLS 131336Z 24012KT M05/M09 A3009 RMK A01 T10521091  RH  074%=      5-min Rain = 0
KSLS 131337Z 24012KT M05/M09 A3009 RMK A01 T10521091  RH  074%=      5-min Rain = 0
KSLS 131338Z 24012KT M05/M09 A3009 RMK A01 T10521091  RH  074%=      5-min Rain = 0
KSLS 131339Z 25012KT M05/M09 A3009 RMK A01 T10521091  RH  074%=      5-min Rain = 0
KSLS 131340Z 25013KT M05/M09 A3009 RMK A01 T10521091  RH  074%=      5-min Rain = 0
KSLS 131341Z 24013KT M05/M09 A3009 RMK A01 T10511091  RH  074%=      5-min Rain = 0
KSLS 131342Z 24013KT M05/M09 A3009 RMK A01 T10511091  RH  073%=      5-min Rain = 0
KSLS 131343Z 25013KT M05/M09 A3009 RMK A01 T10501091  RH  073%=      5-min Rain = 0
KSLS 131344Z 25013KT M05/M09 A3009 RMK A01 T10501091  RH  073%=      5-min Rain = 0
KSLS 131345Z 25013KT M05/M09 A3009 RMK A01 T10501091  RH  073%=      5-min Rain = 0
KSLS 131346Z 25013KT M05/M09 A3009 RMK A01 T10501091  RH  073%=      5-min Rain = 0
KSLS 131347Z 25012KT M05/M09 A3009 RMK A01 T10501091  RH  073%=      5-min Rain = 0
KSLS 131348Z 25012KT M05/M09 A3009 RMK A01 T10501091  RH  073%=      5-min Rain = 0
KSLS 131349Z 25012KT M05/M09 A3009 RMK A01 T10501091  RH  073%=      5-min Rain = 0
KSLS 131350Z 25012KT M05/M09 A3009 RMK A01 T10501091  RH  073%=      5-min Rain = 0
KSLS 131351Z 25012KT M05/M09 A3009 RMK A01 T10501091  RH  073%=      5-min Rain = 0
KSLS 131352Z 25012KT M05/M09 A3009 RMK A01 T10501091  RH  073%=      5-min Rain = 0
KSLS 131353Z 25012KT M05/M09 A3009 RMK A01 T10501092  RH  072%=      5-min Rain = 0
KSLS 131354Z 25012KT M05/M09 A3009 RMK A01 T10501092  RH  072%=      5-min Rain = 0
KSLS 131355Z 25013KT M05/M09 A3009 RMK A01 T10491092  RH  072%=      5-min Rain = 0
KSLS 131356Z 25013KT M05/M09 A3009 RMK A01 T10491091  RH  072%=      5-min Rain = 0
KSLS 131357Z 25013KT M05/M09 A3009 RMK A01 T10481091  RH  072%=      5-min Rain = 0
KSLS 131358Z 25013KT M05/M09 A3009 RMK A01 T10481091  RH  072%=      5-min Rain = 0
KSLS 131359Z 25013KT M05/M09 A3009 RMK A01 T10471091  RH  071%=      5-min Rain = 0
KSLS 131400Z 25013KT M05/M09 A3009 RMK A01 T10461090  RH  071%=      5-min Rain = 0
KSLS 131401Z 25013KT M05/M09 A3009 RMK A01 T10451091  RH  070%=      5-min Rain = 0
KSLS 131402Z 25013KT M05/M09 A3009 RMK A01 T10451091  RH  070%=      5-min Rain = 0
KSLS 131403Z 25013KT M05/M09 A3009 RMK A01 T10451091  RH  070%=      5-min Rain = 0
KSLS 131404Z 25013KT M05/M09 A3009 RMK A01 T10451091  RH  070%=      5-min Rain = 0
KSLS 131405Z 25013KT M05/M09 A3009 RMK A01 T10451091  RH  070%=      5-min Rain = 0
KSLS 131406Z 25013KT M05/M09 A3009 RMK A01 T10451091  RH  070%=      5-min Rain = 0
KSLS 131407Z 25013KT M05/M09 A3009 RMK A01 T10451091  RH  070%=      5-min Rain = 0
KSLS 131408Z 25013KT M04/M09 A3009 RMK A01 T10441091  RH  070%=      5-min Rain = 0
KSLS 131409Z 25012KT M04/M09 A3009 RMK A01 T10441091  RH  070%=      5-min Rain = 0
KSLS 131410Z 25012KT M04/M09 A3009 RMK A01 T10441091  RH  070%=      5-min Rain = 0
KSLS 131411Z 25012KT M04/M09 A3009 RMK A01 T10441091  RH  070%=      5-min Rain = 0
KSLS 131412Z 25012KT M04/M09 A3009 RMK A01 T10441091  RH  070%=      5-min Rain = 0
KSLS 131413Z 25011KT M04/M09 A3009 RMK A01 T10441091  RH  070%=      5-min Rain = 0
KSLS 131414Z 26011KT M05/M09 A3009 RMK A01 T10451091  RH  070%=      5-min Rain = 0
KSLS 131415Z 25012KT M05/M09 A3009 RMK A01 T10451091  RH  070%=      5-min Rain = 0
KSLS 131416Z 25012KT M05/M09 A3009 RMK A01 T10451091  RH  070%=      5-min Rain = 0
KSLS 131417Z 25011KT M05/M09 A3009 RMK A01 T10451092  RH  070%=      5-min Rain = 0
KSLS 131418Z 25011KT M04/M09 A3009 RMK A01 T10441092  RH  070%=      5-min Rain = 0
KSLS 131419Z 25012KT M05/M09 A3009 RMK A01 T10451092  RH  070%=      5-min Rain = 0
KSLS 131420Z 25012KT M05/M09 A3009 RMK A01 T10451092  RH  070%=      5-min Rain = 0
KSLS 131421Z 25012KT M04/M09 A3009 RMK A01 T10441091  RH  070%=      5-min Rain = 0
KSLS 131422Z 25012KT M04/M09 A3009 RMK A01 T10441092  RH  069%=      5-min Rain = 0
KSLS 131423Z 25013KT M04/M09 A3008 RMK A01 T10441092  RH  069%=      5-min Rain = 0
KSLS 131424Z 25013KT M04/M09 A3008 RMK A01 T10431092  RH  069%=      5-min Rain = 0
KSLS 131425Z 25013KT M04/M09 A3008 RMK A01 T10431092  RH  069%=      5-min Rain = 0
KSLS 131426Z 25013KT M04/M09 A3008 RMK A01 T10421092  RH  069%=      5-min Rain = 0
KSLS 131427Z 25013KT M04/M09 A3009 RMK A01 T10411091  RH  068%=      5-min Rain = 0
KSLS 131428Z 25012KT M04/M09 A3009 RMK A01 T10401091  RH  068%=      5-min Rain = 0
KSLS 131429Z 26012KT M04/M09 A3009 RMK A01 T10391090  RH  067%=      5-min Rain = 0
KSLS 131430Z 26012KT M04/M09 A3009 RMK A01 T10381090  RH  067%=      5-min Rain = 0
KSLS 131431Z 26012KT M04/M09 A3009 RMK A01 T10381090  RH  067%=      5-min Rain = 0
KSLS 131432Z 26012KT M04/M09 A3009 RMK A01 T10371090  RH  067%=      5-min Rain = 0
KSLS 131433Z 26012KT M04/M09 A3009 RMK A01 T10361089  RH  067%=      5-min Rain = 0
KSLS 131434Z 26013KT M04/M09 A3009 RMK A01 T10361089  RH  066%=      5-min Rain = 0
KSLS 131435Z 26013KT M04/M09 A3009 RMK A01 T10351089  RH  066%=      5-min Rain = 0
KSLS 131436Z 26013KT M03/M09 A3008 RMK A01 T10341089  RH  065%=      5-min Rain = 0
KSLS 131437Z 26013KT M03/M09 A3008 RMK A01 T10341090  RH  065%=      5-min Rain = 0
KSLS 131438Z 26013KT M03/M09 A3008 RMK A01 T10341090  RH  065%=      5-min Rain = 0
KSLS 131439Z 26012KT M03/M09 A3008 RMK A01 T10341090  RH  065%=      5-min Rain = 0
KSLS 131440Z 26013KT M03/M09 A3008 RMK A01 T10341089  RH  065%=      5-min Rain = 0
KSLS 131441Z 26013KT M03/M09 A3008 RMK A01 T10321089  RH  065%=      5-min Rain = 0
KSLS 131442Z 26012KT M03/M09 A3008 RMK A01 T10321089  RH  065%=      5-min Rain = 0
KSLS 131443Z 26012KT M03/M09 A3008 RMK A01 T10311088  RH  065%=      5-min Rain = 0
KSLS 131444Z 26012KT M03/M09 A3008 RMK A01 T10301087  RH  065%=      5-min Rain = 0
KSLS 131445Z 25011KT M03/M09 A3008 RMK A01 T10291086  RH  064%=      5-min Rain = 0
KSLS 131446Z 26010KT M03/M09 A3008 RMK A01 T10271085  RH  064%=      5-min Rain = 0
KSLS 131447Z 26010KT M03/M09 A3008 RMK A01 T10261085  RH  064%=      5-min Rain = 0
KSLS 131448Z 26011KT M03/M09 A3008 RMK A01 T10251085  RH  063%=      5-min Rain = 0
KSLS 131449Z 26012KT M02/M09 A3008 RMK A01 T10231085  RH  062%=      5-min Rain = 0
KSLS 131450Z 26011KT M02/M09 A3008 RMK A01 T10211085  RH  062%=      5-min Rain = 0
KSLS 131451Z 26011KT M02/M09 A3008 RMK A01 T10211085  RH  062%=      5-min Rain = 0
KSLS 131452Z 26011KT M02/M09 A3008 RMK A01 T10211085  RH  062%=      5-min Rain = 0
KSLS 131453Z 26010KT M02/M09 A3008 RMK A01 T10211085  RH  062%=      5-min Rain = 0
KSLS 131454Z 26012KT M02/M09 A3008 RMK A01 T10201085  RH  062%=      5-min Rain = 0
KSLS 131455Z 26012KT M02/M08 A3008 RMK A01 T10181084  RH  061%=      5-min Rain = 0
KSLS 131456Z 25011KT M02/M08 A3008 RMK A01 T10171083  RH  061%=      5-min Rain = 0
KSLS 131457Z 25012KT M02/M08 A3008 RMK A01 T10161084  RH  060%=      5-min Rain = 0
KSLS 131458Z 25013KT M02/M08 A3008 RMK A01 T10161084  RH  059%=      5-min Rain = 0
KSLS 131459Z 25013KT M02/M09 A3008 RMK A01 T10151085  RH  059%=      5-min Rain = 0
KSLS 131500Z 25013KT M02/M09 A3008 RMK A01 T10151086  RH  059%=      5-min Rain = 0
KSLS 131501Z 25012KT M02/M09 A3008 RMK A01 T10151085  RH  059%=      5-min Rain = 0
KSLS 131502Z 25012KT M02/M09 A3008 RMK A01 T10151085  RH  059%=      5-min Rain = 0
KSLS 131503Z 25013KT M02/M09 A3008 RMK A01 T10151085  RH  059%=      5-min Rain = 0
KSLS 131504Z 25013KT M01/M08 A3008 RMK A01 T10141084  RH  059%=      5-min Rain = 0
KSLS 131505Z 25012KT M01/M08 A3008 RMK A01 T10131084  RH  059%=      5-min Rain = 0
KSLS 131506Z 25013KT M01/M08 A3007 RMK A01 T10131084  RH  059%=      5-min Rain = 0
KSLS 131507Z 25012KT M01/M08 A3007 RMK A01 T10131083  RH  059%=      5-min Rain = 0
KSLS 131508Z 25012KT M01/M08 A3007 RMK A01 T10141083  RH  059%=      5-min Rain = 0
KSLS 131509Z 25012KT M02/M08 A3007 RMK A01 T10151083  RH  060%=      5-min Rain = 0
KSLS 131510Z 25013KT M02/M08 A3007 RMK A01 T10161083  RH  060%=      5-min Rain = 0
KSLS 131511Z 25013KT M02/M08 A3007 RMK A01 T10161082  RH  061%=      5-min Rain = 0
KSLS 131512Z 25014KT M02/M08 A3007 RMK A01 T10151082  RH  060%=      5-min Rain = 0
KSLS 131513Z 25014KT M01/M08 A3007 RMK A01 T10131081  RH  060%=      5-min Rain = 0
KSLS 131514Z 25014KT M01/M08 A3007 RMK A01 T10111081  RH  059%=      5-min Rain = 0
KSLS 131515Z 25012KT M01/M08 A3007 RMK A01 T10091081  RH  058%=      5-min Rain = 0
KSLS 131516Z 25011KT M01/M08 A3007 RMK A01 T10081080  RH  058%=      5-min Rain = 0
KSLS 131517Z 25010KT M01/M08 A3007 RMK A01 T10081079  RH  059%=      5-min Rain = 0
KSLS 131518Z 25010KT M01/M08 A3007 RMK A01 T10081079  RH  059%=      5-min Rain = 0
KSLS 131519Z 25011KT M01/M08 A3007 RMK A01 T10071080  RH  058%=      5-min Rain = 0
KSLS 131520Z 25011KT M01/M08 A3007 RMK A01 T10051079  RH  057%=      5-min Rain = 0
KSLS 131521Z 25013KT M00/M08 A3007 RMK A01 T10041081  RH  056%=      5-min Rain = 0
KSLS 131522Z 25013KT M00/M08 A3007 RMK A01 T10021082  RH  055%=      5-min Rain = 0
KSLS 131523Z 25013KT 00/08 A3008 RMK A01 T00-00-83  RH  054%=      5-min Rain = 0
KSLS 131524Z 25013KT 00/08 A3008 RMK A01 T00000-83  RH  053%=      5-min Rain = 0
KSLS 131525Z 25013KT 00/M08 A3008 RMK A01 T00011084  RH  053%=      5-min Rain = 0
KSLS 131526Z 26011KT 00/M08 A3008 RMK A01 T00011083  RH  053%=      5-min Rain = 0
KSLS 131527Z 26009KT 00/M08 A3008 RMK A01 T00011080  RH  054%=      5-min Rain = 0
KSLS 131528Z 27009KT 00/08 A3008 RMK A01 T00-00-80  RH  055%=      5-min Rain = 0
KSLS 131529Z 27011KT M00/M08 A3008 RMK A01 T10011081  RH  055%=      5-min Rain = 0
KSLS 131530Z 27010KT M00/M08 A3008 RMK A01 T10021082  RH  055%=      5-min Rain = 0
KSLS 131531Z 26010KT M00/M08 A3008 RMK A01 T10031082  RH  055%=      5-min Rain = 0
KSLS 131532Z 26010KT M00/M08 A3008 RMK A01 T10041081  RH  056%=      5-min Rain = 0
KSLS 131533Z 27009KT M01/M08 A3008 RMK A01 T10051080  RH  057%=      5-min Rain = 0
KSLS 131534Z 27010KT M01/M08 A3008 RMK A01 T10051079  RH  057%=      5-min Rain = 0
KSLS 131535Z 27010KT M01/M08 A3008 RMK A01 T10051078  RH  058%=      5-min Rain = 0
KSLS 131536Z 27010KT M01/M08 A3008 RMK A01 T10051078  RH  058%=      5-min Rain = 0
KSLS 131537Z 27010KT M00/M08 A3008 RMK A01 T10041078  RH  058%=      5-min Rain = 0
KSLS 131538Z 27010KT M00/M08 A3008 RMK A01 T10041077  RH  058%=      5-min Rain = 0
KSLS 131539Z 26010KT M00/M08 A3008 RMK A01 T10041077  RH  058%=      5-min Rain = 0
KSLS 131540Z 26011KT M00/M08 A3008 RMK A01 T10031076  RH  058%=      5-min Rain = 0
KSLS 131541Z 27012KT 00/08 A3008 RMK A01 T00-00-76  RH  057%=      5-min Rain = 0
KSLS 131542Z 27011KT 00/M08 A3008 RMK A01 T00031076  RH  055%=      5-min Rain = 0
KSLS 131543Z 27011KT 01/M08 A3008 RMK A01 T00061076  RH  054%=      5-min Rain = 0
KSLS 131544Z 27012KT 01/M08 A3008 RMK A01 T00081075  RH  054%=      5-min Rain = 0
KSLS 131545Z 27012KT 01/M08 A3008 RMK A01 T00111075  RH  053%=      5-min Rain = 0
KSLS 131546Z 27012G17KT 01/M07 A3008 RMK A01 T00131074  RH  052%=      5-min Rain = 0
KSLS 131547Z 27013G19KT 02/M07 A3008 RMK A01 T00161074  RH  051%=      5-min Rain = 0
KSLS 131548Z 27013KT 02/M07 A3008 RMK A01 T00201073  RH  050%=      5-min Rain = 0
KSLS 131549Z 27013KT 02/M07 A3008 RMK A01 T00231073  RH  049%=      5-min Rain = 0
KSLS 131550Z 27013KT 03/M07 A3008 RMK A01 T00261071  RH  049%=      5-min Rain = 0
KSLS 131551Z 27013KT 03/M07 A3008 RMK A01 T00271070  RH  049%=      5-min Rain = 0
KSLS 131552Z 27013KT 03/M07 A3008 RMK A01 T00291070  RH  048%=      5-min Rain = 0
KSLS 131553Z 27013KT 03/M07 A3008 RMK A01 T00311069  RH  048%=      5-min Rain = 0
KSLS 131554Z 27013KT 03/M07 A3008 RMK A01 T00311068  RH  048%=      5-min Rain = 0
KSLS 131555Z 27012KT 03/M07 A3008 RMK A01 T00321067  RH  048%=      5-min Rain = 0
KSLS 131556Z 27012KT 03/M07 A3008 RMK A01 T00321066  RH  049%=      5-min Rain = 0
KSLS 131557Z 27013KT 03/M07 A3008 RMK A01 T00321065  RH  049%=      5-min Rain = 0
KSLS 131558Z 27012KT 03/M06 A3008 RMK A01 T00321064  RH  049%=      5-min Rain = 0
KSLS 131559Z 27013KT 03/M06 A3008 RMK A01 T00331064  RH  049%=      5-min Rain = 0
KSLS 131600Z 27013G18KT 04/M07 A3008 RMK A01 T00351065  RH  048%=      5-min Rain = 0
KSLS 131601Z 27013KT 04/M06 A3008 RMK A01 T00371064  RH  048%=      5-min Rain = 0
KSLS 131602Z 27013KT 04/M06 A3008 RMK A01 T00381064  RH  047%=      5-min Rain = 0
KSLS 131603Z 27013KT 04/M06 A3008 RMK A01 T00391064  RH  047%=      5-min Rain = 0
KSLS 131604Z 27013KT 04/M06 A3008 RMK A01 T00391064  RH  047%=      5-min Rain = 0
KSLS 131605Z 27013KT 04/M07 A3008 RMK A01 T00401065  RH  046%=      5-min Rain = 0
KSLS 131606Z 27014KT 04/M06 A3008 RMK A01 T00411064  RH  046%=      5-min Rain = 0
KSLS 131607Z 27014KT 04/M06 A3008 RMK A01 T00411064  RH  046%=      5-min Rain = 0
KSLS 131608Z 27014KT 04/M06 A3008 RMK A01 T00421064  RH  046%=      5-min Rain = 0
KSLS 131609Z 27013KT 04/M06 A3008 RMK A01 T00441064  RH  045%=      5-min Rain = 0
KSLS 131610Z 27014KT 05/M06 A3008 RMK A01 T00451064  RH  045%=      5-min Rain = 0
KSLS 131611Z 27014KT 05/M06 A3008 RMK A01 T00461063  RH  045%=      5-min Rain = 0
KSLS 131612Z 27014KT 05/M06 A3008 RMK A01 T00461062  RH  045%=      5-min Rain = 0
KSLS 131613Z 27013KT 05/M06 A3008 RMK A01 T00461061  RH  046%=      5-min Rain = 0
KSLS 131614Z 27013KT 05/M06 A3008 RMK A01 T00471059  RH  046%=      5-min Rain = 0
KSLS 131615Z 27013KT 05/M06 A3008 RMK A01 T00481059  RH  046%=      5-min Rain = 0
KSLS 131616Z 27014KT 05/M06 A3008 RMK A01 T00481058  RH  046%=      5-min Rain = 0
KSLS 131617Z 27013KT 05/M06 A3008 RMK A01 T00491059  RH  045%=      5-min Rain = 0
KSLS 131618Z 27013KT 05/M06 A3008 RMK A01 T00501058  RH  045%=      5-min Rain = 0
KSLS 131619Z 27013KT 05/M06 A3008 RMK A01 T00511056  RH  046%=      5-min Rain = 0
KSLS 131620Z 27012KT 05/M06 A3008 RMK A01 T00511057  RH  046%=      5-min Rain = 0
KSLS 131621Z 27012KT 05/M06 A3008 RMK A01 T00511057  RH  045%=      5-min Rain = 0
KSLS 131622Z 27012KT 05/M05 A3008 RMK A01 T00511053  RH  047%=      5-min Rain = 0
KSLS 131623Z 27013KT 05/M05 A3008 RMK A01 T00511054  RH  047%=      5-min Rain = 0
KSLS 131624Z 27012KT 05/M06 A3008 RMK A01 T00511055  RH  046%=      5-min Rain = 0
KSLS 131625Z 27012KT 05/M05 A3008 RMK A01 T00511054  RH  047%=      5-min Rain = 0
KSLS 131626Z 27012KT 05/M05 A3008 RMK A01 T00511053  RH  047%=      5-min Rain = 0
KSLS 131627Z 27012KT 05/M05 A3008 RMK A01 T00511054  RH  047%=      5-min Rain = 0
KSLS 131628Z 27011KT 05/M05 A3008 RMK A01 T00511054  RH  047%=      5-min Rain = 0
KSLS 131629Z 27011KT 05/M05 A3008 RMK A01 T00511053  RH  047%=      5-min Rain = 0
KSLS 131630Z 27011KT 05/M05 A3008 RMK A01 T00511053  RH  047%=      5-min Rain = 0
KSLS 131631Z 27010KT 05/M05 A3008 RMK A01 T00511051  RH  048%=      5-min Rain = 0
KSLS 131632Z 26009KT 05/M05 A3008 RMK A01 T00511051  RH  048%=      5-min Rain = 0
KSLS 131633Z 26010KT 05/M05 A3008 RMK A01 T00511050  RH  048%=      5-min Rain = 0
KSLS 131634Z 26009KT 05/M05 A3008 RMK A01 T00501050  RH  048%=      5-min Rain = 0
KSLS 131635Z 26010KT 05/M05 A3008 RMK A01 T00501050  RH  048%=      5-min Rain = 0
KSLS 131636Z 26009KT 05/M05 A3008 RMK A01 T00511050  RH  048%=      5-min Rain = 0
KSLS 131637Z 27011KT 05/M05 A3008 RMK A01 T00511051  RH  048%=      5-min Rain = 0
KSLS 131638Z 27010KT 05/M05 A3008 RMK A01 T00511050  RH  048%=      5-min Rain = 0
KSLS 131639Z 27010KT 05/M05 A3008 RMK A01 T00501049  RH  049%=      5-min Rain = 0
KSLS 131640Z 27010KT 05/M05 A3008 RMK A01 T00491049  RH  049%=      5-min Rain = 0
KSLS 131641Z 27009KT 05/M05 A3008 RMK A01 T00481049  RH  049%=      5-min Rain = 0
KSLS 131642Z 27009KT 05/M05 A3008 RMK A01 T00471048  RH  050%=      5-min Rain = 0
KSLS 131643Z 27009KT 05/M05 A3008 RMK A01 T00461048  RH  050%=      5-min Rain = 0
KSLS 131644Z 27009KT 05/M05 A3008 RMK A01 T00451048  RH  051%=      5-min Rain = 0
KSLS 131645Z 27009KT 04/M05 A3008 RMK A01 T00441047  RH  051%=      5-min Rain = 0
KSLS 131646Z 27008KT 04/M05 A3008 RMK A01 T00441047  RH  052%=      5-min Rain = 0
KSLS 131647Z 27008KT 04/M05 A3008 RMK A01 T00431047  RH  052%=      5-min Rain = 0
KSLS 131648Z 27008KT 04/M05 A3008 RMK A01 T00431047  RH  052%=      5-min Rain = 0
KSLS 131649Z 27008KT 04/M05 A3008 RMK A01 T00431047  RH  052%=      5-min Rain = 0
KSLS 131650Z 27008KT 04/M05 A3008 RMK A01 T00431046  RH  052%=      5-min Rain = 0
KSLS 131651Z 27009KT 04/M05 A3008 RMK A01 T00441046  RH  052%=      5-min Rain = 0
KSLS 131652Z 27009KT 04/M05 A3009 RMK A01 T00441045  RH  052%=      5-min Rain = 0
KSLS 131653Z 27009KT 05/M05 A3008 RMK A01 T00451046  RH  052%=      5-min Rain = 0
KSLS 131654Z 27010KT 05/M05 A3008 RMK A01 T00461046  RH  051%=      5-min Rain = 0
KSLS 131655Z 27010KT 05/M05 A3009 RMK A01 T00461047  RH  051%=      5-min Rain = 0
KSLS 131656Z 27010KT 05/M05 A3008 RMK A01 T00471047  RH  051%=      5-min Rain = 0
KSLS 131657Z 27011KT 05/M05 A3008 RMK A01 T00481048  RH  050%=      5-min Rain = 0
KSLS 131658Z 27011KT 05/M05 A3008 RMK A01 T00481048  RH  050%=      5-min Rain = 0
KSLS 131659Z 27011KT 05/M05 A3008 RMK A01 T00491049  RH  049%=      5-min Rain = 0
KSLS 131700Z 27011KT 05/M05 A3008 RMK A01 T00491049  RH  049%=      5-min Rain = 0
KSLS 131701Z 27010KT 05/M05 A3008 RMK A01 T00491046  RH  050%=      5-min Rain = 0
KSLS 131702Z 27010KT 05/M05 A3008 RMK A01 T00471046  RH  051%=      5-min Rain = 0
KSLS 131703Z 27010KT 05/M05 A3008 RMK A01 T00471045  RH  051%=      5-min Rain = 0
KSLS 131704Z 27010KT 05/M05 A3008 RMK A01 T00471046  RH  051%=      5-min Rain = 0
KSLS 131705Z 27009KT 05/M05 A3007 RMK A01 T00481046  RH  051%=      5-min Rain = 0
KSLS 131706Z 27010KT 05/M04 A3007 RMK A01 T00481043  RH  051%=      5-min Rain = 0
KSLS 131707Z 27010KT 05/M05 A3007 RMK A01 T00481045  RH  051%=      5-min Rain = 0
KSLS 131708Z 27010KT 05/M04 A3007 RMK A01 T00491044  RH  051%=      5-min Rain = 0
KSLS 131709Z 27010KT 05/M05 A3007 RMK A01 T00491045  RH  050%=      5-min Rain = 0
KSLS 131710Z 27010KT 05/M05 A3007 RMK A01 T00501045  RH  050%=      5-min Rain = 0
KSLS 131711Z 27010KT 05/M04 A3007 RMK A01 T00501044  RH  050%=      5-min Rain = 0
KSLS 131712Z 26010KT 05/M04 A3007 RMK A01 T00501043  RH  051%=      5-min Rain = 0
KSLS 131713Z 26010KT 05/M04 A3007 RMK A01 T00501044  RH  051%=      5-min Rain = 0
KSLS 131714Z 26010KT 05/M04 A3007 RMK A01 T00501042  RH  051%=      5-min Rain = 0
KSLS 131715Z 26010KT 05/M04 A3007 RMK A01 T00501042  RH  052%=      5-min Rain = 0
KSLS 131716Z 26010KT 05/M04 A3007 RMK A01 T00491043  RH  051%=      5-min Rain = 0
KSLS 131717Z 27010KT 05/M04 A3007 RMK A01 T00491042  RH  052%=      5-min Rain = 0
KSLS 131718Z 27010KT 05/M04 A3007 RMK A01 T00501043  RH  051%=      5-min Rain = 0
KSLS 131719Z 27010KT 05/M04 A3007 RMK A01 T00511043  RH  051%=      5-min Rain = 0
KSLS 131720Z 27011KT 05/M04 A3007 RMK A01 T00521043  RH  050%=      5-min Rain = 0
KSLS 131721Z 27011KT 05/M04 A3007 RMK A01 T00531043  RH  050%=      5-min Rain = 0
KSLS 131722Z 27010KT 05/M04 A3007 RMK A01 T00531043  RH  050%=      5-min Rain = 0
KSLS 131723Z 27010KT 05/M04 A3007 RMK A01 T00531042  RH  050%=      5-min Rain = 0
KSLS 131724Z 27010KT 05/M04 A3007 RMK A01 T00531043  RH  050%=      5-min Rain = 0
KSLS 131725Z 27010KT 05/M04 A3007 RMK A01 T00531043  RH  050%=      5-min Rain = 0
KSLS 131726Z 27010KT 05/M04 A3007 RMK A01 T00531043  RH  050%=      5-min Rain = 0
KSLS 131727Z 27011KT 05/M04 A3007 RMK A01 T00531043  RH  050%=      5-min Rain = 0
KSLS 131728Z 27010KT 05/M04 A3007 RMK A01 T00531043  RH  050%=      5-min Rain = 0
KSLS 131729Z 27010KT 05/M04 A3007 RMK A01 T00541043  RH  050%=      5-min Rain = 0
KSLS 131730Z 27010KT 05/M04 A3007 RMK A01 T00541044  RH  049%=      5-min Rain = 0
KSLS 131731Z 27010KT 05/M04 A3007 RMK A01 T00541043  RH  049%=      5-min Rain = 0
KSLS 131732Z 27009KT 05/M04 A3007 RMK A01 T00541041  RH  050%=      5-min Rain = 0
KSLS 131733Z 27010KT 05/M04 A3007 RMK A01 T00541042  RH  050%=      5-min Rain = 0
KSLS 131734Z 27009KT 05/M04 A3007 RMK A01 T00541042  RH  050%=      5-min Rain = 0
KSLS 131735Z 27009KT 06/M04 A3007 RMK A01 T00551043  RH  049%=      5-min Rain = 0
KSLS 131736Z 27009KT 06/M04 A3006 RMK A01 T00551041  RH  050%=      5-min Rain = 0
KSLS 131737Z 27010KT 06/M04 A3006 RMK A01 T00551042  RH  049%=      5-min Rain = 0
KSLS 131738Z 27010KT 06/M04 A3006 RMK A01 T00551044  RH  049%=      5-min Rain = 0
KSLS 131739Z 27010KT 06/M04 A3006 RMK A01 T00561044  RH  048%=      5-min Rain = 0
KSLS 131740Z 26010KT 06/M04 A3006 RMK A01 T00571044  RH  048%=      5-min Rain = 0
KSLS 131741Z 26010KT 06/M04 A3006 RMK A01 T00571043  RH  049%=      5-min Rain = 0
KSLS 131742Z 26009KT 06/M04 A3006 RMK A01 T00571044  RH  048%=      5-min Rain = 0
KSLS 131743Z 26009KT 06/M04 A3006 RMK A01 T00581043  RH  048%=      5-min Rain = 0
KSLS 131744Z 26009KT 06/M04 A3006 RMK A01 T00581043  RH  048%=      5-min Rain = 0
KSLS 131745Z 26010KT 06/M04 A3006 RMK A01 T00591044  RH  048%=      5-min Rain = 0
KSLS 131746Z 26009KT 06/M04 A3006 RMK A01 T00591043  RH  048%=      5-min Rain = 0
KSLS 131747Z 26010KT 06/M04 A3006 RMK A01 T00591044  RH  047%=      5-min Rain = 0
KSLS 131748Z 26009KT 06/M04 A3006 RMK A01 T00601044  RH  047%=      5-min Rain = 0
KSLS 131749Z 26009KT 06/M04 A3006 RMK A01 T00601043  RH  047%=      5-min Rain = 0
KSLS 131750Z 26009KT 06/M04 A3006 RMK A01 T00611043  RH  047%=      5-min Rain = 0
KSLS 131751Z 26010KT 06/M04 A3005 RMK A01 T00611043  RH  047%=      5-min Rain = 0
KSLS 131752Z 26010KT 06/M04 A3005 RMK A01 T00611044  RH  047%=      5-min Rain = 0
KSLS 131753Z 26010KT 06/M04 A3005 RMK A01 T00621044  RH  047%=      5-min Rain = 0
KSLS 131754Z 26010KT 06/M04 A3005 RMK A01 T00621043  RH  047%=      5-min Rain = 0
KSLS 131755Z 26010KT 06/M04 A3005 RMK A01 T00611043  RH  047%=      5-min Rain = 0
KSLS 131756Z 26010KT 06/M04 A3005 RMK A01 T00611044  RH  047%=      5-min Rain = 0
KSLS 131757Z 26010KT 06/M04 A3005 RMK A01 T00621043  RH  047%=      5-min Rain = 0
KSLS 131758Z 26010KT 06/M04 A3005 RMK A01 T00621042  RH  047%=      5-min Rain = 0
KSLS 131759Z 26011KT 06/M04 A3005 RMK A01 T00611041  RH  048%=      5-min Rain = 0
KSLS 131800Z 26011KT 06/M04 A3005 RMK A01 T00611042  RH  047%=      5-min Rain = 0
KSLS 131801Z 25011KT 06/M04 A3005 RMK A01 T00611042  RH  047%=      5-min Rain = 0
KSLS 131802Z 25011KT 06/M04 A3005 RMK A01 T00611042  RH  048%=      5-min Rain = 0
KSLS 131803Z 25011KT 06/M04 A3004 RMK A01 T00621042  RH  047%=      5-min Rain = 0
KSLS 131804Z 25011KT 06/M04 A3004 RMK A01 T00621041  RH  048%=      5-min Rain = 0
KSLS 131805Z 24011KT 06/M04 A3004 RMK A01 T00611040  RH  048%=      5-min Rain = 0
KSLS 131806Z 24011KT 06/M04 A3004 RMK A01 T00591038  RH  050%=      5-min Rain = 0
KSLS 131807Z 24012KT 06/M04 A3004 RMK A01 T00571037  RH  051%=      5-min Rain = 0
KSLS 131808Z 24013KT 06/M04 A3003 RMK A01 T00561038  RH  051%=      5-min Rain = 0
KSLS 131809Z 24012KT 06/M04 A3003 RMK A01 T00551036  RH  052%=      5-min Rain = 0
KSLS 131810Z 24013KT 05/M03 A3003 RMK A01 T00531034  RH  053%=      5-min Rain = 0
KSLS 131811Z 24012KT 05/M04 A3003 RMK A01 T00521035  RH  054%=      5-min Rain = 0
KSLS 131812Z 24012KT 05/M03 A3003 RMK A01 T00521034  RH  054%=      5-min Rain = 0
KSLS 131813Z 24012KT 05/M03 A3003 RMK A01 T00521034  RH  054%=      5-min Rain = 0
KSLS 131814Z 24013KT 05/M03 A3003 RMK A01 T00521034  RH  054%=      5-min Rain = 0
KSLS 131815Z 25012KT 05/M03 A3003 RMK A01 T00511033  RH  055%=      5-min Rain = 0
KSLS 131816Z 24011KT 05/M03 A3002 RMK A01 T00511033  RH  054%=      5-min Rain = 0
KSLS 131817Z 25012KT 05/M04 A3002 RMK A01 T00511035  RH  054%=      5-min Rain = 0
KSLS 131818Z 25013KT 05/M04 A3002 RMK A01 T00541038  RH  052%=      5-min Rain = 0
KSLS 131819Z 25013KT 06/M04 A3002 RMK A01 T00551038  RH  051%=      5-min Rain = 0
KSLS 131820Z 25014KT 06/M04 A3002 RMK A01 T00561038  RH  051%=      5-min Rain = 0
KSLS 131821Z 25015KT 06/M04 A3002 RMK A01 T00561039  RH  050%=      5-min Rain = 0
KSLS 131822Z 25015KT 06/M04 A3002 RMK A01 T00571040  RH  050%=      5-min Rain = 0
KSLS 131823Z 25015KT 06/M04 A3002 RMK A01 T00571040  RH  050%=      5-min Rain = 0
KSLS 131824Z 25014KT 06/M04 A3002 RMK A01 T00571039  RH  050%=      5-min Rain = 0
KSLS 131825Z 25014KT 06/M04 A3002 RMK A01 T00571039  RH  050%=      5-min Rain = 0
KSLS 131826Z 25013KT 06/M04 A3002 RMK A01 T00571038  RH  050%=      5-min Rain = 0
KSLS 131827Z 25012KT 06/M04 A3002 RMK A01 T00561036  RH  051%=      5-min Rain = 0
KSLS 131828Z 25012KT 06/M04 A3002 RMK A01 T00551035  RH  052%=      5-min Rain = 0
KSLS 131829Z 25012KT 05/M03 A3002 RMK A01 T00541034  RH  053%=      5-min Rain = 0
KSLS 131830Z 25012KT 05/M04 A3002 RMK A01 T00541035  RH  052%=      5-min Rain = 0
KSLS 131831Z 25012KT 06/M04 A3002 RMK A01 T00551035  RH  052%=      5-min Rain = 0
KSLS 131832Z 25012KT 06/M04 A3002 RMK A01 T00551035  RH  052%=      5-min Rain = 0
KSLS 131833Z 25012KT 06/M04 A3002 RMK A01 T00561035  RH  052%=      5-min Rain = 0
KSLS 131834Z 25012KT 06/M04 A3002 RMK A01 T00561036  RH  051%=      5-min Rain = 0
KSLS 131835Z 25014KT 06/M04 A3002 RMK A01 T00561036  RH  051%=      5-min Rain = 0
KSLS 131836Z 25012KT 06/M04 A3002 RMK A01 T00571037  RH  051%=      5-min Rain = 0
KSLS 131837Z 25012KT 06/M04 A3002 RMK A01 T00571035  RH  052%=      5-min Rain = 0
KSLS 131838Z 25011KT 06/M04 A3002 RMK A01 T00561035  RH  052%=      5-min Rain = 0
KSLS 131839Z 25012KT 06/M03 A3001 RMK A01 T00551034  RH  052%=      5-min Rain = 0
KSLS 131840Z 25012KT 06/M04 A3001 RMK A01 T00551035  RH  052%=      5-min Rain = 0
KSLS 131841Z 25013KT 05/M04 A3001 RMK A01 T00541035  RH  053%=      5-min Rain = 0
KSLS 131842Z 25013KT 05/M04 A3001 RMK A01 T00541036  RH  052%=      5-min Rain = 0
KSLS 131843Z 25012KT 05/M04 A3001 RMK A01 T00541037  RH  052%=      5-min Rain = 0
KSLS 131844Z 25013KT 05/M04 A3001 RMK A01 T00541037  RH  052%=      5-min Rain = 0
KSLS 131845Z 25012KT 06/M04 A3001 RMK A01 T00551038  RH  051%=      5-min Rain = 0
KSLS 131846Z 25013KT 06/M04 A3001 RMK A01 T00561037  RH  051%=      5-min Rain = 0
KSLS 131847Z 25011KT 06/M04 A30 RMK A01 T00571038  RH  050%=      5-min Rain = 0
KSLS 131848Z 25013G18KT 06/M04 A30 RMK A01 T00571037  RH  051%=      5-min Rain = 0
KSLS 131849Z 25012KT 06/M04 A30 RMK A01 T00571037  RH  050%=      5-min Rain = 0
KSLS 131850Z 25012KT 06/M04 A30 RMK A01 T00571037  RH  051%=      5-min Rain = 0
KSLS 131851Z 25013KT 06/M04 A30 RMK A01 T00581037  RH  051%=      5-min Rain = 0
KSLS 131852Z 25013KT 06/M04 A30 RMK A01 T00581036  RH  051%=      5-min Rain = 0
KSLS 131853Z 25013KT 06/M04 A30 RMK A01 T00571035  RH  051%=      5-min Rain = 0
KSLS 131854Z 25013KT 06/M03 A2999 RMK A01 T00561034  RH  052%=      5-min Rain = 0
KSLS 131855Z 25012KT 05/M03 A2999 RMK A01 T00541032  RH  054%=      5-min Rain = 0
KSLS 131856Z 25012KT 05/M03 A2999 RMK A01 T00521033  RH  054%=      5-min Rain = 0
KSLS 131857Z 25012KT 05/M03 A2999 RMK A01 T00521032  RH  055%=      5-min Rain = 0
KSLS 131858Z 25013KT 05/M03 A2999 RMK A01 T00521033  RH  054%=      5-min Rain = 0
KSLS 131859Z 25012KT 05/M03 A2999 RMK A01 T00521032  RH  055%=      5-min Rain = 0
KSLS 131900Z 25012KT 05/M03 A2999 RMK A01 T00511031  RH  055%=      5-min Rain = 0
KSLS 131901Z 25011KT 05/M03 A2999 RMK A01 T00501032  RH  055%=      5-min Rain = 0
KSLS 131902Z 25011KT 05/M03 A2999 RMK A01 T00501032  RH  055%=      5-min Rain = 0
KSLS 131903Z 25012KT 05/M03 A2999 RMK A01 T00501032  RH  055%=      5-min Rain = 0
KSLS 131904Z 25012KT 05/M03 A2999 RMK A01 T00501031  RH  056%=      5-min Rain = 0
KSLS 131905Z 25012KT 05/M03 A2999 RMK A01 T00501031  RH  056%=      5-min Rain = 0
KSLS 131906Z 25012KT 05/M03 A2998 RMK A01 T00501031  RH  056%=      5-min Rain = 0
KSLS 131907Z 24012KT 05/M03 A2998 RMK A01 T00501031  RH  056%=      5-min Rain = 0
KSLS 131908Z 24012KT 05/M03 A2998 RMK A01 T00501031  RH  056%=      5-min Rain = 0
KSLS 131909Z 24011KT 05/M03 A2998 RMK A01 T00491029  RH  057%=      5-min Rain = 0
KSLS 131910Z 24011KT 05/M03 A2998 RMK A01 T00481028  RH  058%=      5-min Rain = 0
KSLS 131911Z 24013KT 05/M03 A2998 RMK A01 T00471027  RH  058%=      5-min Rain = 0
KSLS 131912Z 24013KT 05/M03 A2998 RMK A01 T00471028  RH  058%=      5-min Rain = 0
KSLS 131913Z 24013KT 05/M03 A2997 RMK A01 T00471028  RH  058%=      5-min Rain = 0
KSLS 131914Z 24014KT 05/M03 A2997 RMK A01 T00461028  RH  058%=      5-min Rain = 0
KSLS 131915Z 24014KT 05/M03 A2997 RMK A01 T00471029  RH  058%=      5-min Rain = 0
KSLS 131916Z 24013KT 05/M03 A2997 RMK A01 T00481029  RH  057%=      5-min Rain = 0
KSLS 131917Z 24014KT 05/M03 A2997 RMK A01 T00491029  RH  057%=      5-min Rain = 0
KSLS 131918Z 24013KT 05/M03 A2997 RMK A01 T00491030  RH  057%=      5-min Rain = 0
KSLS 131919Z 24013KT 05/M03 A2997 RMK A01 T00501029  RH  056%=      5-min Rain = 0
KSLS 131920Z 24013KT 05/M03 A2997 RMK A01 T00511028  RH  057%=      5-min Rain = 0
KSLS 131921Z 24012KT 05/M03 A2996 RMK A01 T00491026  RH  058%=      5-min Rain = 0
KSLS 131922Z 24010KT 05/M03 A2996 RMK A01 T00481025  RH  059%=      5-min Rain = 0
KSLS 131923Z 24010KT 05/M03 A2997 RMK A01 T00481025  RH  059%=      5-min Rain = 0
KSLS 131924Z 25010KT 05/M03 A2997 RMK A01 T00481025  RH  059%=      5-min Rain = 0
KSLS 131925Z 25009KT 05/M03 A2997 RMK A01 T00491025  RH  059%=      5-min Rain = 0
KSLS 131926Z 25009KT 05/M03 A2997 RMK A01 T00511025  RH  058%=      5-min Rain = 0
KSLS 131927Z 25010KT 05/M03 A2997 RMK A01 T00521027  RH  057%=      5-min Rain = 0
KSLS 131928Z 25010KT 05/M03 A2997 RMK A01 T00541027  RH  056%=      5-min Rain = 0
KSLS 131929Z 25010KT 05/M03 A2997 RMK A01 T00541027  RH  056%=      5-min Rain = 0
KSLS 131930Z 25010KT 05/M03 A2997 RMK A01 T00541026  RH  056%=      5-min Rain = 0
KSLS 131931Z 25010KT 06/M03 A2997 RMK A01 T00551026  RH  056%=      5-min Rain = 0
KSLS 131932Z 25010KT 06/M03 A2997 RMK A01 T00551027  RH  055%=      5-min Rain = 0
KSLS 131933Z 25011KT 06/M03 A2997 RMK A01 T00561028  RH  055%=      5-min Rain = 0
KSLS 131934Z 25011KT 06/M03 A2997 RMK A01 T00571028  RH  054%=      5-min Rain = 0
KSLS 131935Z 25010KT 06/M03 A2997 RMK A01 T00581028  RH  054%=      5-min Rain = 0
KSLS 131936Z 25011KT 06/M03 A2997 RMK A01 T00581027  RH  054%=      5-min Rain = 0
KSLS 131937Z 25011KT 06/M03 A2996 RMK A01 T00581028  RH  054%=      5-min Rain = 0
KSLS 131938Z 25011KT 06/M03 A2996 RMK A01 T00581028  RH  054%=      5-min Rain = 0
KSLS 131939Z 25011KT 06/M03 A2997 RMK A01 T00571028  RH  054%=      5-min Rain = 0
KSLS 131940Z 25011KT 06/M03 A2997 RMK A01 T00571029  RH  054%=      5-min Rain = 0
KSLS 131941Z 25011KT 06/M03 A2997 RMK A01 T00581028  RH  054%=      5-min Rain = 0
KSLS 131942Z 25010KT 06/M03 A2996 RMK A01 T00581028  RH  054%=      5-min Rain = 0
KSLS 131943Z 25010KT 06/M03 A2996 RMK A01 T00581027  RH  054%=      5-min Rain = 0
KSLS 131944Z 25010KT 06/M03 A2996 RMK A01 T00581027  RH  054%=      5-min Rain = 0
KSLS 131945Z 25010KT 06/M03 A2996 RMK A01 T00581027  RH  055%=      5-min Rain = 0
KSLS 131946Z 25011KT 06/M03 A2996 RMK A01 T00571026  RH  055%=      5-min Rain = 0
KSLS 131947Z 24010KT 06/M03 A2996 RMK A01 T00571027  RH  055%=      5-min Rain = 0
KSLS 131948Z 24011KT 06/M03 A2996 RMK A01 T00561026  RH  055%=      5-min Rain = 0
KSLS 131949Z 24011KT 06/M03 A2995 RMK A01 T00551026  RH  056%=      5-min Rain = 0
KSLS 131950Z 24010KT 06/M03 A2995 RMK A01 T00551026  RH  056%=      5-min Rain = 0
KSLS 131951Z 25010KT 05/M03 A2995 RMK A01 T00541025  RH  056%=      5-min Rain = 0
KSLS 131952Z 24011KT 05/M03 A2995 RMK A01 T00541025  RH  057%=      5-min Rain = 0
KSLS 131953Z 24011KT 05/M02 A2995 RMK A01 T00531024  RH  058%=      5-min Rain = 0
KSLS 131954Z 23010KT 05/M02 A2995 RMK A01 T00511022  RH  059%=      5-min Rain = 0
KSLS 131955Z 23010KT 05/M02 A2994 RMK A01 T00501021  RH  060%=      5-min Rain = 0
KSLS 131956Z 23010KT 05/M02 A2994 RMK A01 T00491021  RH  061%=      5-min Rain = 0
KSLS 131957Z 23011KT 05/M02 A2994 RMK A01 T00491022  RH  060%=      5-min Rain = 0
KSLS 131958Z 23011KT 05/M02 A2994 RMK A01 T00491023  RH  060%=      5-min Rain = 0
KSLS 131959Z 24011KT 05/M02 A2994 RMK A01 T00491023  RH  060%=      5-min Rain = 0
KSLS 132000Z 24011KT 05/M02 A2994 RMK A01 T00491023  RH  059%=      5-min Rain = 0
KSLS 132001Z 24011KT 05/M02 A2995 RMK A01 T00501024  RH  059%=      5-min Rain = 0
KSLS 132002Z 25011KT 05/M02 A2995 RMK A01 T00511024  RH  059%=      5-min Rain = 0
KSLS 132003Z 25009KT 05/M02 A2995 RMK A01 T00511023  RH  059%=      5-min Rain = 0
KSLS 132004Z 25009KT 05/M02 A2995 RMK A01 T00521023  RH  058%=      5-min Rain = 0
KSLS 132005Z 25009KT 05/M02 A2995 RMK A01 T00531022  RH  058%=      5-min Rain = 0
KSLS 132006Z 24009KT 05/M02 A2995 RMK A01 T00531023  RH  058%=      5-min Rain = 0
KSLS 132007Z 24009KT 05/M02 A2994 RMK A01 T00541023  RH  058%=      5-min Rain = 0
KSLS 132008Z 24009KT 05/M02 A2994 RMK A01 T00541024  RH  057%=      5-min Rain = 0
KSLS 132009Z 25010KT 05/M02 A2995 RMK A01 T00541024  RH  057%=      5-min Rain = 0
KSLS 132010Z 25009KT 05/M02 A2995 RMK A01 T00541024  RH  057%=      5-min Rain = 0
KSLS 132011Z 25009KT 06/M02 A2995 RMK A01 T00551024  RH  057%=      5-min Rain = 0
KSLS 132012Z 25008KT 06/M02 A2995 RMK A01 T00561023  RH  057%=      5-min Rain = 0
KSLS 132013Z 25008KT 06/M02 A2995 RMK A01 T00561022  RH  057%=      5-min Rain = 0
KSLS 132014Z 25008KT 06/M02 A2994 RMK A01 T00561022  RH  057%=      5-min Rain = 0
KSLS 132015Z 25008KT 06/M02 A2994 RMK A01 T00561022  RH  057%=      5-min Rain = 0
KSLS 132016Z 24007KT 06/M02 A2994 RMK A01 T00561022  RH  057%=      5-min Rain = 0
KSLS 132017Z 24008KT 06/M02 A2994 RMK A01 T00551021  RH  058%=      5-min Rain = 0
KSLS 132018Z 24008KT 05/M02 A2994 RMK A01 T00541020  RH  059%=      5-min Rain = 0
KSLS 132019Z 24009KT 05/M02 A2994 RMK A01 T00521020  RH  060%=      5-min Rain = 0
KSLS 132020Z 23009KT 05/M02 A2994 RMK A01 T00511020  RH  060%=      5-min Rain = 0
KSLS 132021Z 23009KT 05/M02 A2994 RMK A01 T00501020  RH  061%=      5-min Rain = 0
KSLS 132022Z 23009KT 05/M02 A2994 RMK A01 T00501019  RH  061%=      5-min Rain = 0
KSLS 132023Z 23009KT 05/M02 A2994 RMK A01 T00501019  RH  061%=      5-min Rain = 0
KSLS 132024Z 23009KT 05/M02 A2994 RMK A01 T00491018  RH  062%=      5-min Rain = 0
KSLS 132025Z 23010KT 05/M02 A2994 RMK A01 T00481019  RH  062%=      5-min Rain = 0
KSLS 132026Z 24010KT 05/M02 A2994 RMK A01 T00481019  RH  062%=      5-min Rain = 0
KSLS 132027Z 23010KT 05/M02 A2994 RMK A01 T00481019  RH  062%=      5-min Rain = 0
KSLS 132028Z 24010KT 05/M02 A2994 RMK A01 T00481019  RH  062%=      5-min Rain = 0
KSLS 132029Z 24010KT 05/M02 A2993 RMK A01 T00471019  RH  062%=      5-min Rain = 0
KSLS 132030Z 24011KT 05/M02 A2993 RMK A01 T00471018  RH  063%=      5-min Rain = 0
KSLS 132031Z 24011KT 05/M02 A2993 RMK A01 T00471018  RH  063%=      5-min Rain = 0
KSLS 132032Z 24011KT 05/M02 A2993 RMK A01 T00471019  RH  062%=      5-min Rain = 0
KSLS 132033Z 24011KT 05/M02 A2993 RMK A01 T00481019  RH  062%=      5-min Rain = 0
KSLS 132034Z 24011KT 05/M02 A2993 RMK A01 T00491019  RH  062%=      5-min Rain = 0
KSLS 132035Z 24011KT 05/M02 A2993 RMK A01 T00491019  RH  061%=      5-min Rain = 0
KSLS 132036Z 23011KT 05/M02 A2993 RMK A01 T00491018  RH  062%=      5-min Rain = 0
KSLS 132037Z 23011KT 05/M02 A2993 RMK A01 T00491018  RH  062%=      5-min Rain = 0
KSLS 132038Z 23011KT 05/M02 A2993 RMK A01 T00491019  RH  062%=      5-min Rain = 0
KSLS 132039Z 23011KT 05/M02 A2993 RMK A01 T00491018  RH  062%=      5-min Rain = 0
KSLS 132040Z 23011KT 05/M02 A2993 RMK A01 T00481018  RH  063%=      5-min Rain = 0
KSLS 132041Z 23012KT 05/M02 A2993 RMK A01 T00481018  RH  062%=      5-min Rain = 0
KSLS 132042Z 23011KT 05/M02 A2993 RMK A01 T00481019  RH  062%=      5-min Rain = 0
KSLS 132043Z 23012KT 05/M02 A2993 RMK A01 T00491019  RH  061%=      5-min Rain = 0
KSLS 132044Z 23011KT 05/M02 A2993 RMK A01 T00491019  RH  061%=      5-min Rain = 0
KSLS 132045Z 23011KT 05/M02 A2993 RMK A01 T00501020  RH  061%=      5-min Rain = 0
KSLS 132046Z 23012KT 05/M02 A2993 RMK A01 T00501020  RH  061%=      5-min Rain = 0
KSLS 132047Z 23012KT 05/M02 A2993 RMK A01 T00501020  RH  061%=      5-min Rain = 0
KSLS 132048Z 23012KT 05/M02 A2992 RMK A01 T00501020  RH  061%=      5-min Rain = 0
KSLS 132049Z 23012KT 05/M02 A2992 RMK A01 T00501020  RH  060%=      5-min Rain = 0
KSLS 132050Z 23012KT 05/M02 A2992 RMK A01 T00511020  RH  060%=      5-min Rain = 0
KSLS 132051Z 23012KT 05/M02 A2992 RMK A01 T00511020  RH  060%=      5-min Rain = 0
KSLS 132052Z 23012KT 05/M02 A2992 RMK A01 T00511020  RH  060%=      5-min Rain = 0
KSLS 132053Z 23012KT 05/M02 A2992 RMK A01 T00511021  RH  060%=      5-min Rain = 0
KSLS 132054Z 23012KT 05/M02 A2992 RMK A01 T00511021  RH  060%=      5-min Rain = 0
KSLS 132055Z 24012KT 05/M02 A2992 RMK A01 T00511020  RH  060%=      5-min Rain = 0
KSLS 132056Z 24013KT 05/M02 A2992 RMK A01 T00511020  RH  060%=      5-min Rain = 0
KSLS 132057Z 24013KT 05/M02 A2992 RMK A01 T00511020  RH  060%=      5-min Rain = 0
KSLS 132058Z 24013KT 05/M02 A2992 RMK A01 T00511021  RH  060%=      5-min Rain = 0
KSLS 132059Z 24012KT 05/M02 A2992 RMK A01 T00511021  RH  059%=      5-min Rain = 0
KSLS 132100Z 24013KT 05/M02 A2992 RMK A01 T00521021  RH  060%=      5-min Rain = 0
KSLS 132101Z 24012KT 05/M02 A2992 RMK A01 T00521020  RH  060%=      5-min Rain = 0
KSLS 132102Z 24013KT 05/M02 A2992 RMK A01 T00521021  RH  059%=      5-min Rain = 0
KSLS 132103Z 24013KT 05/M02 A2992 RMK A01 T00521020  RH  060%=      5-min Rain = 0
KSLS 132104Z 24012KT 05/M02 A2992 RMK A01 T00511019  RH  060%=      5-min Rain = 0
KSLS 132105Z 24011KT 05/M02 A2992 RMK A01 T00491019  RH  061%=      5-min Rain = 0
KSLS 132106Z 24012KT 05/M02 A2992 RMK A01 T00491019  RH  062%=      5-min Rain = 0
KSLS 132107Z 24011KT 05/M02 A2992 RMK A01 T00491018  RH  062%=      5-min Rain = 0
KSLS 132108Z 24012KT 05/M02 A2992 RMK A01 T00491019  RH  062%=      5-min Rain = 0
KSLS 132109Z 24011KT 05/M02 A2992 RMK A01 T00501020  RH  060%=      5-min Rain = 0
KSLS 132110Z 24012KT 05/M02 A2992 RMK A01 T00511020  RH  060%=      5-min Rain = 0
KSLS 132111Z 24011KT 05/M02 A2992 RMK A01 T00511020  RH  060%=      5-min Rain = 0
KSLS 132112Z 24012KT 05/M02 A2992 RMK A01 T00521019  RH  060%=      5-min Rain = 0
KSLS 132113Z 24011KT 05/M02 A2992 RMK A01 T00511019  RH  060%=      5-min Rain = 0
KSLS 132114Z 24012KT 05/M02 A2992 RMK A01 T00511019  RH  061%=      5-min Rain = 0
KSLS 132115Z 24012KT 05/M02 A2992 RMK A01 T00511019  RH  061%=      5-min Rain = 0
KSLS 132116Z 24012KT 05/M02 A2992 RMK A01 T00511020  RH  060%=      5-min Rain = 0
KSLS 132117Z 24013KT 05/M02 A2992 RMK A01 T00521020  RH  060%=      5-min Rain = 0
KSLS 132118Z 24013KT 05/M02 A2992 RMK A01 T00531020  RH  059%=      5-min Rain = 0
KSLS 132119Z 24013KT 05/M02 A2992 RMK A01 T00531020  RH  059%=      5-min Rain = 0
KSLS 132120Z 24014KT 05/M02 A2992 RMK A01 T00531020  RH  059%=      5-min Rain = 0
KSLS 132121Z 24014KT 05/M02 A2992 RMK A01 T00531019  RH  060%=      5-min Rain = 0
KSLS 132122Z 24013KT 05/M02 A2992 RMK A01 T00521018  RH  061%=      5-min Rain = 0
KSLS 132123Z 24012KT 05/M02 A2992 RMK A01 T00501018  RH  061%=      5-min Rain = 0
KSLS 132124Z 24012KT 05/M02 A2992 RMK A01 T00501017  RH  062%=      5-min Rain = 0
KSLS 132125Z 24013KT 05/M02 A2992 RMK A01 T00491017  RH  062%=      5-min Rain = 0
KSLS 132126Z 24014KT 05/M02 A2992 RMK A01 T00501018  RH  062%=      5-min Rain = 0
KSLS 132127Z 24013KT 05/M02 A2992 RMK A01 T00501018  RH  062%=      5-min Rain = 0
KSLS 132128Z 24013KT 05/M02 A2992 RMK A01 T00501017  RH  062%=      5-min Rain = 0
KSLS 132129Z 24013KT 05/M02 A2992 RMK A01 T00501018  RH  061%=      5-min Rain = 0
KSLS 132130Z 24012KT 05/M02 A2992 RMK A01 T00511017  RH  062%=      5-min Rain = 0
KSLS 132131Z 24012KT 05/M02 A2992 RMK A01 T00511017  RH  062%=      5-min Rain = 0
KSLS 132132Z 24012KT 05/M02 A2992 RMK A01 T00511017  RH  062%=      5-min Rain = 0
KSLS 132133Z 24012KT 05/M02 A2992 RMK A01 T00511016  RH  062%=      5-min Rain = 0
KSLS 132134Z 24012KT 05/M02 A2992 RMK A01 T00511017  RH  062%=      5-min Rain = 0
KSLS 132135Z 24013KT 05/M02 A2992 RMK A01 T00521017  RH  061%=      5-min Rain = 0
KSLS 132136Z 24012KT 05/M02 A2992 RMK A01 T00521017  RH  061%=      5-min Rain = 0
KSLS 132137Z 24012KT 05/M02 A2992 RMK A01 T00521016  RH  062%=      5-min Rain = 0
KSLS 132138Z 24012KT 05/M02 A2992 RMK A01 T00511016  RH  062%=      5-min Rain = 0
KSLS 132139Z 24012KT 05/M02 A2992 RMK A01 T00511015  RH  063%=      5-min Rain = 0
KSLS 132140Z 23011KT 05/M02 A2992 RMK A01 T00501015  RH  063%=      5-min Rain = 0
KSLS 132141Z 24012KT 05/M01 A2992 RMK A01 T00491014  RH  064%=      5-min Rain = 0
KSLS 132142Z 24012KT 05/M02 A2992 RMK A01 T00491015  RH  063%=      5-min Rain = 0
KSLS 132143Z 24012KT 05/M02 A2992 RMK A01 T00501015  RH  063%=      5-min Rain = 0
KSLS 132144Z 24012KT 05/M01 A2992 RMK A01 T00511014  RH  063%=      5-min Rain = 0
KSLS 132145Z 24012KT 05/M01 A2992 RMK A01 T00511014  RH  063%=      5-min Rain = 0
KSLS 132146Z 24012KT 05/M01 A2992 RMK A01 T00511014  RH  063%=      5-min Rain = 0
KSLS 132147Z 24013KT 05/M02 A2992 RMK A01 T00511015  RH  063%=      5-min Rain = 0
KSLS 132148Z 24013KT 05/M02 A2992 RMK A01 T00511015  RH  062%=      5-min Rain = 0
KSLS 132149Z 24012KT 05/M01 A2992 RMK A01 T00511014  RH  063%=      5-min Rain = 0
KSLS 132150Z 24012KT 05/M01 A2992 RMK A01 T00511014  RH  063%=      5-min Rain = 0
KSLS 132151Z 24012KT 05/M01 A2992 RMK A01 T00511014  RH  063%=      5-min Rain = 0
KSLS 132152Z 24012KT 05/M01 A2992 RMK A01 T00521014  RH  063%=      5-min Rain = 0
KSLS 132153Z 24012KT 05/M01 A2992 RMK A01 T00511013  RH  063%=      5-min Rain = 0
KSLS 132154Z 24012KT 05/M01 A2992 RMK A01 T00501013  RH  064%=      5-min Rain = 0
KSLS 132155Z 24012KT 05/M01 A2992 RMK A01 T00501014  RH  064%=      5-min Rain = 0
KSLS 132156Z 24013KT 05/M01 A2992 RMK A01 T00501014  RH  064%=      5-min Rain = 0
KSLS 132157Z 24014KT 05/M01 A2992 RMK A01 T00501014  RH  063%=      5-min Rain = 0
KSLS 132158Z 24014KT 05/M01 A2992 RMK A01 T00501014  RH  063%=      5-min Rain = 0
KSLS 132159Z 24013KT 05/M01 A2992 RMK A01 T00501013  RH  064%=      5-min Rain = 0
KSLS 132200Z 24014KT 05/M01 A2992 RMK A01 T00491013  RH  064%=      5-min Rain = 0
KSLS 132201Z 24013KT 05/M01 A2992 RMK A01 T00491013  RH  064%=      5-min Rain = 0
KSLS 132202Z 23013KT 05/M01 A2992 RMK A01 T00491013  RH  064%=      5-min Rain = 0
KSLS 132203Z 24013KT 05/M01 A2992 RMK A01 T00491013  RH  064%=      5-min Rain = 0
KSLS 132204Z 24013KT 05/M01 A2992 RMK A01 T00491013  RH  065%=      5-min Rain = 0
KSLS 132205Z 24013KT 05/M01 A2992 RMK A01 T00481012  RH  065%=      5-min Rain = 0
KSLS 132206Z 24014KT 05/M01 A2992 RMK A01 T00481013  RH  065%=      5-min Rain = 0
KSLS 132207Z 24014KT 05/M01 A2992 RMK A01 T00501013  RH  064%=      5-min Rain = 0
KSLS 132208Z 24014KT 05/M01 A2992 RMK A01 T00511013  RH  063%=      5-min Rain = 0
KSLS 132209Z 24013KT 05/M01 A2992 RMK A01 T00511014  RH  063%=      5-min Rain = 0
KSLS 132210Z 24013KT 05/M01 A2992 RMK A01 T00511014  RH  063%=      5-min Rain = 0
KSLS 132211Z 24013KT 05/M01 A2992 RMK A01 T00511014  RH  063%=      5-min Rain = 0
KSLS 132212Z 24013KT 05/M01 A2992 RMK A01 T00521014  RH  062%=      5-min Rain = 0
KSLS 132213Z 24014KT 05/M01 A2992 RMK A01 T00521014  RH  062%=      5-min Rain = 0
KSLS 132214Z 24014KT 05/M01 A2992 RMK A01 T00521014  RH  062%=      5-min Rain = 0
KSLS 132215Z 24013KT 05/M01 A2992 RMK A01 T00511014  RH  063%=      5-min Rain = 0
KSLS 132216Z 24014KT 05/M01 A2992 RMK A01 T00501014  RH  063%=      5-min Rain = 0
KSLS 132217Z 23013KT 05/M01 A2992 RMK A01 T00501014  RH  064%=      5-min Rain = 0
KSLS 132218Z 24014KT 05/M01 A2992 RMK A01 T00491014  RH  064%=      5-min Rain = 0
KSLS 132219Z 24014KT 05/M01 A2992 RMK A01 T00481014  RH  064%=      5-min Rain = 0
KSLS 132220Z 23013KT 05/M01 A2992 RMK A01 T00481013  RH  065%=      5-min Rain = 0
KSLS 132221Z 23012KT 05/M01 A2992 RMK A01 T00471013  RH  065%=      5-min Rain = 0
KSLS 132222Z 23012KT 05/M01 A2991 RMK A01 T00471013  RH  065%=      5-min Rain = 0
KSLS 132223Z 23012KT 05/M01 A2991 RMK A01 T00471013  RH  065%=      5-min Rain = 0
KSLS 132224Z 23012KT 05/M01 A2991 RMK A01 T00471013  RH  065%=      5-min Rain = 0
KSLS 132225Z 23012KT 05/M01 A2991 RMK A01 T00471012  RH  065%=      5-min Rain = 0
KSLS 132226Z 23013KT 05/M01 A2991 RMK A01 T00481012  RH  065%=      5-min Rain = 0
KSLS 132227Z 23013KT 05/M01 A2991 RMK A01 T00481012  RH  065%=      5-min Rain = 0
KSLS 132228Z 23014KT 05/M01 A2991 RMK A01 T00481012  RH  065%=      5-min Rain = 0
KSLS 132229Z 23015KT 05/M01 A2991 RMK A01 T00491012  RH  065%=      5-min Rain = 0
KSLS 132230Z 24015KT 05/M01 A2991 RMK A01 T00501012  RH  064%=      5-min Rain = 0
KSLS 132231Z 24015KT 05/M01 A2991 RMK A01 T00501013  RH  064%=      5-min Rain = 0
KSLS 132232Z 24015KT 05/M01 A2991 RMK A01 T00511012  RH  064%=      5-min Rain = 0
KSLS 132233Z 24015KT 05/M01 A2991 RMK A01 T00511013  RH  064%=      5-min Rain = 0
KSLS 132234Z 24015KT 05/M01 A2991 RMK A01 T00501012  RH  064%=      5-min Rain = 0
KSLS 132235Z 24014KT 05/M01 A2991 RMK A01 T00501012  RH  064%=      5-min Rain = 0
KSLS 132236Z 24014KT 05/M01 A2991 RMK A01 T00491012  RH  065%=      5-min Rain = 0
KSLS 132237Z 24014KT 05/M01 A2991 RMK A01 T00491012  RH  065%=      5-min Rain = 0
KSLS 132238Z 24015KT 05/M01 A2991 RMK A01 T00491012  RH  065%=      5-min Rain = 0
KSLS 132239Z 24014KT 05/M01 A2991 RMK A01 T00501012  RH  064%=      5-min Rain = 0
KSLS 132240Z 24014KT 05/M01 A2991 RMK A01 T00511012  RH  064%=      5-min Rain = 0
KSLS 132241Z 24014KT 05/M01 A2991 RMK A01 T00511012  RH  064%=      5-min Rain = 0
KSLS 132242Z 23014KT 05/M01 A2991 RMK A01 T00511012  RH  064%=      5-min Rain = 0
KSLS 132243Z 23014KT 05/M01 A2991 RMK A01 T00511012  RH  064%=      5-min Rain = 0
KSLS 132244Z 23013KT 05/M01 A2991 RMK A01 T00511012  RH  064%=      5-min Rain = 0
KSLS 132245Z 23013KT 05/M01 A2991 RMK A01 T00501012  RH  064%=      5-min Rain = 0
KSLS 132246Z 23013KT 05/M01 A2991 RMK A01 T00501012  RH  064%=      5-min Rain = 0
KSLS 132247Z 23012KT 05/M01 A2991 RMK A01 T00501012  RH  064%=      5-min Rain = 0
KSLS 132248Z 23013KT 05/M01 A2991 RMK A01 T00501011  RH  065%=      5-min Rain = 0
KSLS 132249Z 23014KT 05/M01 A2991 RMK A01 T00501011  RH  065%=      5-min Rain = 0
KSLS 132250Z 23014KT 05/M01 A2991 RMK A01 T00511011  RH  064%=      5-min Rain = 0
KSLS 132251Z 23014KT 05/M01 A2991 RMK A01 T00511011  RH  064%=      5-min Rain = 0
KSLS 132252Z 23014KT 05/M01 A2991 RMK A01 T00511011  RH  064%=      5-min Rain = 0
KSLS 132253Z 23014KT 05/M01 A2991 RMK A01 T00501011  RH  065%=      5-min Rain = 0
KSLS 132254Z 23015KT 05/M01 A2991 RMK A01 T00501011  RH  065%=      5-min Rain = 0
KSLS 132255Z 23014KT 05/M01 A2991 RMK A01 T00501011  RH  065%=      5-min Rain = 0
KSLS 132256Z 23014KT 05/M01 A2991 RMK A01 T00501010  RH  065%=      5-min Rain = 0
KSLS 132257Z 23014KT 05/M01 A2991 RMK A01 T00501010  RH  065%=      5-min Rain = 0
KSLS 132258Z 23014KT 05/M01 A2991 RMK A01 T00501010  RH  065%=      5-min Rain = 0
KSLS 132259Z 23014KT 05/M01 A2991 RMK A01 T00501011  RH  065%=      5-min Rain = 0
KSLS 132300Z 23015KT 05/M01 A2991 RMK A01 T00501011  RH  065%=      5-min Rain = 0
KSLS 132301Z 23015KT 05/M01 A2991 RMK A01 T00511011  RH  064%=      5-min Rain = 0
KSLS 132302Z 23015KT 05/M01 A2991 RMK A01 T00521011  RH  064%=      5-min Rain = 0
KSLS 132303Z 23015KT 05/M01 A2991 RMK A01 T00521012  RH  063%=      5-min Rain = 0
KSLS 132304Z 23016KT 05/M01 A2991 RMK A01 T00521012  RH  064%=      5-min Rain = 0
KSLS 132305Z 23015KT 05/M01 A2991 RMK A01 T00521012  RH  064%=      5-min Rain = 0
KSLS 132306Z 23015KT 05/M01 A2991 RMK A01 T00511011  RH  064%=      5-min Rain = 0
KSLS 132307Z 23015KT 05/M01 A299 RMK A01 T00511011  RH  064%=      5-min Rain = 0
KSLS 132308Z 23015KT 05/M01 A299 RMK A01 T00511011  RH  064%=      5-min Rain = 0
KSLS 132309Z 23014KT 05/M01 A299 RMK A01 T00501011  RH  065%=      5-min Rain = 0
KSLS 132310Z 23013KT 05/M01 A299 RMK A01 T00481011  RH  065%=      5-min Rain = 0
KSLS 132311Z 23014KT 05/M01 A299 RMK A01 T00481011  RH  066%=      5-min Rain = 0
KSLS 132312Z 23014KT 05/M01 A299 RMK A01 T00481011  RH  066%=      5-min Rain = 0
KSLS 132313Z 23013KT 05/M01 A299 RMK A01 T00491011  RH  065%=      5-min Rain = 0
KSLS 132314Z 22013KT 05/M01 A299 RMK A01 T00491010  RH  066%=      5-min Rain = 0
KSLS 132315Z 22013KT 05/M01 A299 RMK A01 T00481010  RH  066%=      5-min Rain = 0
KSLS 132316Z 22013KT 05/M01 A299 RMK A01 T00471010  RH  066%=      5-min Rain = 0
KSLS 132317Z 22013KT 05/M01 A299 RMK A01 T00471010  RH  066%=      5-min Rain = 0
KSLS 132318Z 22013KT 05/M01 A299 RMK A01 T00471009  RH  067%=      5-min Rain = 0
KSLS 132319Z 23013KT 05/M01 A299 RMK A01 T00461009  RH  067%=      5-min Rain = 0
KSLS 132320Z 23013KT 05/M01 A299 RMK A01 T00461009  RH  067%=      5-min Rain = 0
KSLS 132321Z 23013KT 05/M01 A299 RMK A01 T00461008  RH  068%=      5-min Rain = 0
KSLS 132322Z 23013KT 05/M01 A299 RMK A01 T00461008  RH  068%=      5-min Rain = 0
KSLS 132323Z 23013KT 05/M01 A299 RMK A01 T00461008  RH  068%=      5-min Rain = 0
KSLS 132324Z 23015KT 05/M01 A299 RMK A01 T00461007  RH  069%=      5-min Rain = 0
KSLS 132325Z 23015KT 05/M01 A299 RMK A01 T00451007  RH  069%=      5-min Rain = 0
KSLS 132326Z 23015KT 05/M01 A299 RMK A01 T00461006  RH  069%=      5-min Rain = 0
KSLS 132327Z 23015KT 05/M01 A299 RMK A01 T00461006  RH  069%=      5-min Rain = 0
KSLS 132328Z 23015KT 05/M01 A299 RMK A01 T00461006  RH  069%=      5-min Rain = 0
KSLS 132329Z 23014KT 05/M01 A299 RMK A01 T00471006  RH  069%=      5-min Rain = 0
KSLS 132330Z 23015KT 05/M01 A299 RMK A01 T00461005  RH  069%=      5-min Rain = 0
KSLS 132331Z 23014KT 05/M01 A299 RMK A01 T00471005  RH  069%=      5-min Rain = 0
KSLS 132332Z 23014KT 05/M01 A299 RMK A01 T00471005  RH  069%=      5-min Rain = 0
KSLS 132333Z 23014KT 05/M01 A299 RMK A01 T00471005  RH  069%=      5-min Rain = 0
KSLS 132334Z 23014KT 05/M01 A299 RMK A01 T00471005  RH  069%=      5-min Rain = 0
KSLS 132335Z 23014KT 05/M01 A299 RMK A01 T00471005  RH  069%=      5-min Rain = 0
KSLS 132336Z 23014KT 05/M01 A299 RMK A01 T00471005  RH  069%=      5-min Rain = 0
KSLS 132337Z 23014KT 05/M01 A299 RMK A01 T00481005  RH  069%=      5-min Rain = 0
KSLS 132338Z 23013KT 05/M01 A2989 RMK A01 T00471005  RH  069%=      5-min Rain = 0
KSLS 132339Z 23013KT 05/M01 A2989 RMK A01 T00461005  RH  070%=      5-min Rain = 0
KSLS 132340Z 23013KT 05/M01 A2989 RMK A01 T00461005  RH  070%=      5-min Rain = 0
KSLS 132341Z 23013KT 05/M01 A2989 RMK A01 T00461005  RH  070%=      5-min Rain = 0
KSLS 132342Z 23013KT 05/M01 A2989 RMK A01 T00461005  RH  070%=      5-min Rain = 0
KSLS 132343Z 23013KT 05/M01 A2989 RMK A01 T00461005  RH  069%=      5-min Rain = 0
KSLS 132344Z 23014KT 05/M01 A2989 RMK A01 T00461005  RH  069%=      5-min Rain = 0
KSLS 132345Z 23013KT 05/M01 A2989 RMK A01 T00471005  RH  069%=      5-min Rain = 0
KSLS 132346Z 23013KT 05/M01 A2989 RMK A01 T00471005  RH  069%=      5-min Rain = 0
KSLS 132347Z 23013KT 05/M01 A2989 RMK A01 T00471005  RH  069%=      5-min Rain = 0
KSLS 132348Z 23013KT 05/M01 A2989 RMK A01 T00471005  RH  069%=      5-min Rain = 0
KSLS 132349Z 23013KT 05/M01 A2989 RMK A01 T00471005  RH  069%=      5-min Rain = 0
KSLS 132350Z 23013KT 05/M01 A2989 RMK A01 T00461005  RH  069%=      5-min Rain = 0
KSLS 132351Z 23013KT 05/M01 A2989 RMK A01 T00471005  RH  069%=      5-min Rain = 0
KSLS 132352Z 23013KT 05/M01 A2989 RMK A01 T00461005  RH  069%=      5-min Rain = 0
KSLS 132353Z 23014KT 05/M01 A2989 RMK A01 T00461005  RH  069%=      5-min Rain = 0
KSLS 132354Z 23013KT 05/M01 A2989 RMK A01 T00461006  RH  069%=      5-min Rain = 0
KSLS 132355Z 23013KT 05/M01 A2989 RMK A01 T00461005  RH  069%=      5-min Rain = 0
KSLS 132356Z 23013KT 05/M01 A2989 RMK A01 T00451005  RH  070%=      5-min Rain = 0
KSLS 132357Z 24012KT 05/M01 A2989 RMK A01 T00451005  RH  070%=      5-min Rain = 0
KSLS 132358Z 24013KT 04/M01 A2989 RMK A01 T00441006  RH  070%=      5-min Rain = 0
KSLS 132359Z 24013KT 04/M01 A2989 RMK A01 T00431006  RH  071%=      5-min Rain = 0
KSLS 140000Z 24013KT 04/M01 A2989 RMK A01 T00431006  RH  071%=      5-min Rain = 0
KSLS 140001Z 24014KT 04/M01 A2989 RMK A01 T00431006  RH  071%=      5-min Rain = 0
KSLS 140002Z 23013KT 04/M01 A2989 RMK A01 T00431006  RH  071%=      5-min Rain = 0
KSLS 140003Z 24014KT 04/M01 A2989 RMK A01 T00431005  RH  071%=      5-min Rain = 0
KSLS 140004Z 23014KT 04/M01 A299 RMK A01 T00431006  RH  071%=      5-min Rain = 0
KSLS 140005Z 24014KT 04/M01 A299 RMK A01 T00421005  RH  071%=      5-min Rain = 0
KSLS 140006Z 24014KT 04/M01 A299 RMK A01 T00421005  RH  071%=      5-min Rain = 0
KSLS 140007Z 24013KT 04/M01 A299 RMK A01 T00421006  RH  071%=      5-min Rain = 0
KSLS 140008Z 23013KT 04/M01 A299 RMK A01 T00421006  RH  071%=      5-min Rain = 0
KSLS 140009Z 23014KT 04/M01 A299 RMK A01 T00411006  RH  072%=      5-min Rain = 0
KSLS 140010Z 23013KT 04/M01 A299 RMK A01 T00411006  RH  072%=      5-min Rain = 0
KSLS 140011Z 24013KT 04/M01 A299 RMK A01 T00401006  RH  072%=      5-min Rain = 0
KSLS 140012Z 23013KT 04/M01 A299 RMK A01 T00401006  RH  072%=      5-min Rain = 0
KSLS 140013Z 23013KT 04/M01 A299 RMK A01 T00391006  RH  072%=      5-min Rain = 0
KSLS 140014Z 23012KT 04/M01 A299 RMK A01 T00391006  RH  073%=      5-min Rain = 0
KSLS 140015Z 23013KT 04/M01 A299 RMK A01 T00381006  RH  073%=      5-min Rain = 0
KSLS 140016Z 24013KT 04/M01 A299 RMK A01 T00381006  RH  073%=      5-min Rain = 0
KSLS 140017Z 24013KT 04/M01 A299 RMK A01 T00381006  RH  073%=      5-min Rain = 0
KSLS 140018Z 24013KT 04/M01 A299 RMK A01 T00381006  RH  073%=      5-min Rain = 0
KSLS 140019Z 24013KT 04/M01 A299 RMK A01 T00381006  RH  073%=      5-min Rain = 0
KSLS 140020Z 24013KT 04/M01 A299 RMK A01 T00371006  RH  073%=      5-min Rain = 0
KSLS 140021Z 24013KT 04/M01 A299 RMK A01 T00371006  RH  073%=      5-min Rain = 0
KSLS 140022Z 24013KT 04/M01 A299 RMK A01 T00381006  RH  073%=      5-min Rain = 0
KSLS 140023Z 24014KT 04/M01 A299 RMK A01 T00381006  RH  073%=      5-min Rain = 0
KSLS 140024Z 24013KT 04/M01 A299 RMK A01 T00391006  RH  072%=      5-min Rain = 0
KSLS 140025Z 24014KT 04/M01 A299 RMK A01 T00401006  RH  072%=      5-min Rain = 0
KSLS 140026Z 24013KT 04/M01 A299 RMK A01 T00401006  RH  072%=      5-min Rain = 0
KSLS 140027Z 24013KT 04/M01 A299 RMK A01 T00401006  RH  072%=      5-min Rain = 0
KSLS 140028Z 24013KT 04/M01 A299 RMK A01 T00391007  RH  072%=      5-min Rain = 0
KSLS 140029Z 24012KT 04/M01 A299 RMK A01 T00381007  RH  073%=      5-min Rain = 0
KSLS 140030Z 24012KT 04/M01 A299 RMK A01 T00361007  RH  073%=      5-min Rain = 0
KSLS 140031Z 24012KT 04/M01 A299 RMK A01 T00351007  RH  074%=      5-min Rain = 0
KSLS 140032Z 24011KT 03/M01 A299 RMK A01 T00341007  RH  074%=      5-min Rain = 0
KSLS 140033Z 24011KT 03/M01 A299 RMK A01 T00341007  RH  075%=      5-min Rain = 0
KSLS 140034Z 24011KT 03/M01 A2991 RMK A01 T00331007  RH  075%=      5-min Rain = 0
KSLS 140035Z 24011KT 03/M01 A2991 RMK A01 T00331007  RH  075%=      5-min Rain = 0
KSLS 140036Z 24012KT 03/M01 A2991 RMK A01 T00341007  RH  074%=      5-min Rain = 0
KSLS 140037Z 24012KT 04/M01 A2991 RMK A01 T00351007  RH  074%=      5-min Rain = 0
KSLS 140038Z 24011KT 04/M01 A2991 RMK A01 T00361007  RH  073%=      5-min Rain = 0
KSLS 140039Z 24012KT 04/M01 A2991 RMK A01 T00361007  RH  073%=      5-min Rain = 0
KSLS 140040Z 24012KT 04/M01 A2991 RMK A01 T00371008  RH  073%=      5-min Rain = 0
KSLS 140041Z 24013KT 04/M01 A2991 RMK A01 T00371008  RH  073%=      5-min Rain = 0
KSLS 140042Z 24012KT 04/M01 A2991 RMK A01 T00381008  RH  072%=      5-min Rain = 0
KSLS 140043Z 24013KT 04/M01 A2991 RMK A01 T00391008  RH  072%=      5-min Rain = 0
KSLS 140044Z 24012KT 04/M01 A2991 RMK A01 T00391008  RH  072%=      5-min Rain = 0
KSLS 140045Z 24012KT 04/M01 A2991 RMK A01 T00381008  RH  072%=      5-min Rain = 0
KSLS 140046Z 24012KT 04/M01 A2992 RMK A01 T00371008  RH  072%=      5-min Rain = 0
KSLS 140047Z 24012KT 04/M01 A2992 RMK A01 T00361008  RH  073%=      5-min Rain = 0
KSLS 140048Z 24012KT 04/M01 A2992 RMK A01 T00371008  RH  072%=      5-min Rain = 0
KSLS 140049Z 24012KT 04/M01 A2991 RMK A01 T00371009  RH  072%=      5-min Rain = 0
KSLS 140050Z 24013KT 04/M01 A2991 RMK A01 T00371009  RH  072%=      5-min Rain = 0
KSLS 140051Z 24013KT 04/M01 A2991 RMK A01 T00371008  RH  072%=      5-min Rain = 0
KSLS 140052Z 24013KT 04/M01 A2991 RMK A01 T00381008  RH  072%=      5-min Rain = 0
KSLS 140053Z 24014KT 04/M01 A2991 RMK A01 T00381008  RH  072%=      5-min Rain = 0
KSLS 140054Z 24013KT 04/M01 A2991 RMK A01 T00381008  RH  072%=      5-min Rain = 0
KSLS 140055Z 24012KT 04/M01 A2991 RMK A01 T00371009  RH  072%=      5-min Rain = 0
KSLS 140056Z 24013KT 04/M01 A2991 RMK A01 T00371009  RH  072%=      5-min Rain = 0
KSLS 140057Z 24013KT 04/M01 A2991 RMK A01 T00371009  RH  072%=      5-min Rain = 0
KSLS 140058Z 24013KT 04/M01 A2991 RMK A01 T00371009  RH  072%=      5-min Rain = 0
KSLS 140059Z 24013KT 04/M01 A2991 RMK A01 T00371009  RH  072%=      5-min Rain = 0
KSLS 140100Z 24013KT 04/M01 A2991 RMK A01 T00381009  RH  071%=      5-min Rain = 0
KSLS 140101Z 24013KT 04/M01 A2991 RMK A01 T00381009  RH  071%=      5-min Rain = 0
KSLS 140102Z 24013KT 04/M01 A2991 RMK A01 T00381010  RH  071%=      5-min Rain = 0
KSLS 140103Z 24013KT 04/M01 A2991 RMK A01 T00381010  RH  071%=      5-min Rain = 0
KSLS 140104Z 24013KT 04/M01 A2992 RMK A01 T00391010  RH  071%=      5-min Rain = 0
KSLS 140105Z 24013KT 04/M01 A2992 RMK A01 T00391010  RH  070%=      5-min Rain = 0
KSLS 140106Z 24013KT 04/M01 A2991 RMK A01 T00391010  RH  070%=      5-min Rain = 0
KSLS 140107Z 24013KT 04/M01 A2991 RMK A01 T00391010  RH  070%=      5-min Rain = 0
KSLS 140108Z 24013KT 04/M01 A2991 RMK A01 T00391010  RH  070%=      5-min Rain = 0
KSLS 140109Z 24012KT 04/M01 A2991 RMK A01 T00391010  RH  070%=      5-min Rain = 0
KSLS 140110Z 24012KT 04/M01 A2991 RMK A01 T00391010  RH  070%=      5-min Rain = 0
KSLS 140111Z 24012KT 04/M01 A2991 RMK A01 T00391010  RH  070%=      5-min Rain = 0
KSLS 140112Z 24012KT 04/M01 A2991 RMK A01 T00381011  RH  071%=      5-min Rain = 0
KSLS 140113Z 24012KT 04/M01 A2991 RMK A01 T00371011  RH  071%=      5-min Rain = 0
KSLS 140114Z 24013KT 04/M01 A2991 RMK A01 T00371011  RH  071%=      5-min Rain = 0
KSLS 140115Z 24012KT 04/M01 A2991 RMK A01 T00361011  RH  071%=      5-min Rain = 0
KSLS 140116Z 24012KT 04/M01 A2991 RMK A01 T00361011  RH  071%=      5-min Rain = 0
KSLS 140117Z 24012KT 04/M01 A2991 RMK A01 T00361011  RH  071%=      5-min Rain = 0
KSLS 140118Z 24012KT 04/M01 A2991 RMK A01 T00371011  RH  071%=      5-min Rain = 0
KSLS 140119Z 24011KT 04/M01 A2991 RMK A01 T00381011  RH  070%=      5-min Rain = 0
KSLS 140120Z 24012KT 04/M01 A2991 RMK A01 T00381012  RH  070%=      5-min Rain = 0
KSLS 140121Z 24012KT 04/M01 A2991 RMK A01 T00381012  RH  070%=      5-min Rain = 0
KSLS 140122Z 24012KT 04/M01 A2991 RMK A01 T00371012  RH  070%=      5-min Rain = 0
KSLS 140123Z 24013KT 04/M01 A2991 RMK A01 T00371012  RH  070%=      5-min Rain = 0
KSLS 140124Z 24013KT 04/M01 A2991 RMK A01 T00371012  RH  070%=      5-min Rain = 0
KSLS 140125Z 24012KT 04/M01 A2991 RMK A01 T00371012  RH  070%=      5-min Rain = 0
KSLS 140126Z 24011KT 04/M01 A299 RMK A01 T00371013  RH  070%=      5-min Rain = 0
KSLS 140127Z 24011KT 04/M01 A299 RMK A01 T00381013  RH  070%=      5-min Rain = 0
KSLS 140128Z 24011KT 04/M01 A299 RMK A01 T00381013  RH  069%=      5-min Rain = 0
KSLS 140129Z 24012KT 04/M01 A299 RMK A01 T00391013  RH  069%=      5-min Rain = 0
KSLS 140130Z 24012KT 04/M01 A299 RMK A01 T00391013  RH  069%=      5-min Rain = 0
KSLS 140131Z 24012KT 04/M01 A299 RMK A01 T00381014  RH  069%=      5-min Rain = 0
KSLS 140132Z 24012KT 04/M01 A299 RMK A01 T00371013  RH  070%=      5-min Rain = 0
KSLS 140133Z 24012KT 04/M01 A299 RMK A01 T00361013  RH  070%=      5-min Rain = 0
KSLS 140134Z 24012KT 04/M01 A299 RMK A01 T00371014  RH  069%=      5-min Rain = 0
KSLS 140135Z 24013KT 04/M01 A299 RMK A01 T00381014  RH  069%=      5-min Rain = 0
KSLS 140136Z 24013KT 04/M01 A299 RMK A01 T00391014  RH  068%=      5-min Rain = 0
KSLS 140137Z 24013KT 04/M01 A299 RMK A01 T00401014  RH  068%=      5-min Rain = 0
KSLS 140138Z 24013KT 04/M01 A299 RMK A01 T00401014  RH  068%=      5-min Rain = 0
KSLS 140139Z 24014KT 04/M02 A299 RMK A01 T00411015  RH  067%=      5-min Rain = 0
KSLS 140140Z 24014KT 04/M02 A2989 RMK A01 T00421015  RH  067%=      5-min Rain = 0
KSLS 140141Z 24014KT 04/M02 A2989 RMK A01 T00421015  RH  066%=      5-min Rain = 0
KSLS 140142Z 24014KT 04/M02 A2989 RMK A01 T00421015  RH  067%=      5-min Rain = 0
KSLS 140143Z 24014KT 04/M02 A2989 RMK A01 T00411015  RH  067%=      5-min Rain = 0
KSLS 140144Z 24014KT 04/M02 A2989 RMK A01 T00411015  RH  067%=      5-min Rain = 0
KSLS 140145Z 24014KT 04/M02 A2989 RMK A01 T00421015  RH  067%=      5-min Rain = 0
KSLS 140146Z 24014KT 04/M02 A2989 RMK A01 T00421015  RH  066%=      5-min Rain = 0
KSLS 140147Z 24014KT 04/M02 A2989 RMK A01 T00421015  RH  066%=      5-min Rain = 0
KSLS 140148Z 24014KT 04/M02 A2989 RMK A01 T00431015  RH  066%=      5-min Rain = 0
KSLS 140149Z 24014KT 04/M02 A2989 RMK A01 T00441016  RH  065%=      5-min Rain = 0
KSLS 140150Z 24014G19KT 05/M02 A2989 RMK A01 T00461016  RH  064%=      5-min Rain = 0
KSLS 140151Z 24014KT 05/M02 A2989 RMK A01 T00481016  RH  063%=      5-min Rain = 0
KSLS 140152Z 25015KT 05/M02 A2989 RMK A01 T00501017  RH  062%=      5-min Rain = 0
KSLS 140153Z 25015G20KT 05/M02 A2989 RMK A01 T00531017  RH  061%=      5-min Rain = 0
KSLS 140154Z 25015KT 06/M02 A2989 RMK A01 T00571017  RH  059%=      5-min Rain = 0
KSLS 140155Z 25015KT 06/M02 A2989 RMK A01 T00591017  RH  058%=      5-min Rain = 0
KSLS 140156Z 25015KT 06/M02 A2989 RMK A01 T00601017  RH  058%=      5-min Rain = 0
KSLS 140157Z 25016KT 06/M02 A2989 RMK A01 T00601017  RH  058%=      5-min Rain = 0
KSLS 140158Z 25015G21KT 06/M02 A2989 RMK A01 T00601017  RH  058%=      5-min Rain = 0
KSLS 140159Z 25014KT 06/M02 A2989 RMK A01 T00601016  RH  058%=      5-min Rain = 0
KSLS 140200Z 25015KT 06/M02 A2989 RMK A01 T00591016  RH  059%=      5-min Rain = 0
KSLS 140201Z 25015KT 06/M02 A2989 RMK A01 T00581016  RH  059%=      5-min Rain = 0
KSLS 140202Z 25014KT 06/M02 A2989 RMK A01 T00571015  RH  060%=      5-min Rain = 0
KSLS 140203Z 25013KT 06/M02 A2989 RMK A01 T00561015  RH  060%=      5-min Rain = 0
KSLS 140204Z 25013KT 06/M02 A2989 RMK A01 T00551015  RH  061%=      5-min Rain = 0
KSLS 140205Z 25012KT 05/M02 A2989 RMK A01 T00541015  RH  061%=      5-min Rain = 0
KSLS 140206Z 25012KT 05/M02 A2989 RMK A01 T00521015  RH  062%=      5-min Rain = 0
KSLS 140207Z 25013KT 05/M02 A2989 RMK A01 T00511015  RH  062%=      5-min Rain = 0
KSLS 140208Z 25013KT 05/M02 A2989 RMK A01 T00511015  RH  062%=      5-min Rain = 0
KSLS 140209Z 25013KT 05/M02 A2989 RMK A01 T00501015  RH  063%=      5-min Rain = 0
KSLS 140210Z 25012KT 05/M02 A2989 RMK A01 T00491015  RH  063%=      5-min Rain = 0
KSLS 140211Z 25013KT 05/M02 A2989 RMK A01 T00481015  RH  064%=      5-min Rain = 0
KSLS 140212Z 25012KT 05/M02 A2989 RMK A01 T00471015  RH  064%=      5-min Rain = 0
KSLS 140213Z 25013KT 05/M02 A2989 RMK A01 T00471015  RH  064%=      5-min Rain = 0
KSLS 140214Z 25013KT 05/M02 A2989 RMK A01 T00481015  RH  064%=      5-min Rain = 0
KSLS 140215Z 25012KT 05/M02 A2988 RMK A01 T00491015  RH  063%=      5-min Rain = 0
KSLS 140216Z 24012KT 05/M01 A2988 RMK A01 T00481014  RH  064%=      5-min Rain = 0
KSLS 140217Z 24013KT 05/M01 A2988 RMK A01 T00471014  RH  064%=      5-min Rain = 0
KSLS 140218Z 24012KT 05/M01 A2988 RMK A01 T00471014  RH  065%=      5-min Rain = 0
KSLS 140219Z 24012KT 05/M01 A2988 RMK A01 T00461014  RH  065%=      5-min Rain = 0
KSLS 140220Z 24013KT 05/M01 A2988 RMK A01 T00451014  RH  066%=      5-min Rain = 0
KSLS 140221Z 24012KT 04/M01 A2988 RMK A01 T00441014  RH  066%=      5-min Rain = 0
KSLS 140222Z 25012KT 04/M01 A2988 RMK A01 T00441014  RH  066%=      5-min Rain = 0
KSLS 140223Z 25012KT 04/M01 A2988 RMK A01 T00441014  RH  066%=      5-min Rain = 0
KSLS 140224Z 25012KT 04/M01 A2988 RMK A01 T00441014  RH  066%=      5-min Rain = 0
KSLS 140225Z 25011KT 04/M01 A2988 RMK A01 T00441014  RH  066%=      5-min Rain = 0
KSLS 140226Z 25011KT 04/M01 A2988 RMK A01 T00441014  RH  066%=      5-min Rain = 0
KSLS 140227Z 25011KT 04/M01 A2988 RMK A01 T00431014  RH  066%=      5-min Rain = 0
KSLS 140228Z 25013KT 04/M01 A2988 RMK A01 T00441014  RH  066%=      5-min Rain = 0
KSLS 140229Z 25012KT 04/M01 A2988 RMK A01 T00441014  RH  066%=      5-min Rain = 0
KSLS 140230Z 25012KT 05/M01 A2988 RMK A01 T00451014  RH  066%=      5-min Rain = 0
KSLS 140231Z 25013KT 04/M01 A2987 RMK A01 T00441014  RH  066%=      5-min Rain = 0
KSLS 140232Z 25012KT 05/M01 A2987 RMK A01 T00451014  RH  066%=      5-min Rain = 0
KSLS 140233Z 25012KT 05/M01 A2987 RMK A01 T00451013  RH  066%=      5-min Rain = 0
KSLS 140234Z 25012KT 04/M01 A2987 RMK A01 T00441013  RH  066%=      5-min Rain = 0
KSLS 140235Z 25012KT 04/M01 A2987 RMK A01 T00441014  RH  066%=      5-min Rain = 0
KSLS 140236Z 25012KT 04/M01 A2987 RMK A01 T00441013  RH  066%=      5-min Rain = 0
KSLS 140237Z 25012KT 04/M01 A2987 RMK A01 T00441013  RH  067%=      5-min Rain = 0
KSLS 140238Z 25013KT 04/M01 A2987 RMK A01 T00431013  RH  067%=      5-min Rain = 0
KSLS 140239Z 25012KT 04/M01 A2987 RMK A01 T00431013  RH  067%=      5-min Rain = 0
KSLS 140240Z 25012KT 04/M01 A2987 RMK A01 T00441013  RH  066%=      5-min Rain = 0
KSLS 140241Z 25012KT 04/M01 A2987 RMK A01 T00441013  RH  066%=      5-min Rain = 0
KSLS 140242Z 25013KT 04/M01 A2987 RMK A01 T00441013  RH  066%=      5-min Rain = 0
KSLS 140243Z 25012KT 04/M01 A2987 RMK A01 T00441013  RH  066%=      5-min Rain = 0
KSLS 140244Z 25013KT 04/M01 A2987 RMK A01 T00431013  RH  067%=      5-min Rain = 0
KSLS 140245Z 25014KT 04/M01 A2987 RMK A01 T00431013  RH  067%=      5-min Rain = 0
KSLS 140246Z 25014KT 04/M01 A2987 RMK A01 T00431014  RH  066%=      5-min Rain = 0
KSLS 140247Z 25013KT 04/M01 A2987 RMK A01 T00441014  RH  066%=      5-min Rain = 0
KSLS 140248Z 25013KT 04/M01 A2987 RMK A01 T00431014  RH  066%=      5-min Rain = 0
KSLS 140249Z 25012KT 04/M01 A2987 RMK A01 T00431014  RH  067%=      5-min Rain = 0
KSLS 140250Z 25013KT 04/M01 A2987 RMK A01 T00421013  RH  067%=      5-min Rain = 0
KSLS 140251Z 25012KT 04/M01 A2987 RMK A01 T00421014  RH  067%=      5-min Rain = 0
KSLS 140252Z 25013KT 04/M01 A2987 RMK A01 T00421014  RH  067%=      5-min Rain = 0
KSLS 140253Z 25013KT 04/M01 A2987 RMK A01 T00421014  RH  067%=      5-min Rain = 0
KSLS 140254Z 25013KT 04/M01 A2987 RMK A01 T00431014  RH  067%=      5-min Rain = 0
KSLS 140255Z 25012KT 04/M01 A2987 RMK A01 T00431014  RH  067%=      5-min Rain = 0
KSLS 140256Z 25013KT 04/M01 A2987 RMK A01 T00421014  RH  067%=      5-min Rain = 0
KSLS 140257Z 25013KT 04/M01 A2987 RMK A01 T00421013  RH  067%=      5-min Rain = 0
KSLS 140258Z 25014KT 04/M01 A2987 RMK A01 T00421013  RH  067%=      5-min Rain = 0
KSLS 140259Z 25014KT 04/M01 A2987 RMK A01 T00411013  RH  067%=      5-min Rain = 0
KSLS 140300Z 25014KT 04/M01 A2987 RMK A01 T00411014  RH  067%=      5-min Rain = 0
KSLS 140301Z 25014KT 04/M01 A2987 RMK A01 T00411013  RH  067%=      5-min Rain = 0
KSLS 140302Z 25015KT 04/M01 A2987 RMK A01 T00411014  RH  067%=      5-min Rain = 0
KSLS 140303Z 25015KT 04/M01 A2987 RMK A01 T00411014  RH  067%=      5-min Rain = 0
KSLS 140304Z 25014KT 04/M01 A2987 RMK A01 T00401014  RH  068%=      5-min Rain = 0
KSLS 140305Z 25015KT 04/M01 A2987 RMK A01 T00401014  RH  068%=      5-min Rain = 0
KSLS 140306Z 25014KT 04/M01 A2987 RMK A01 T00391014  RH  068%=      5-min Rain = 0
KSLS 140307Z 25013KT 04/M01 A2987 RMK A01 T00401014  RH  068%=      5-min Rain = 0
KSLS 140308Z 25014KT 04/M01 A2987 RMK A01 T00401014  RH  068%=      5-min Rain = 0
KSLS 140309Z 25014KT 04/M01 A2987 RMK A01 T00401014  RH  068%=      5-min Rain = 0
KSLS 140310Z 25013KT 04/M01 A2987 RMK A01 T00411014  RH  068%=      5-min Rain = 0
KSLS 140311Z 25014KT 04/M01 A2987 RMK A01 T00401014  RH  068%=      5-min Rain = 0
KSLS 140312Z 25013KT 04/M01 A2987 RMK A01 T00401014  RH  068%=      5-min Rain = 0
KSLS 140313Z 25013KT 04/M01 A2987 RMK A01 T00401014  RH  068%=      5-min Rain = 0
KSLS 140314Z 24013KT 04/M01 A2986 RMK A01 T00391014  RH  068%=      5-min Rain = 0
KSLS 140315Z 24012KT 04/M01 A2986 RMK A01 T00391014  RH  068%=      5-min Rain = 0
KSLS 140316Z 24013KT 04/M01 A2987 RMK A01 T00391014  RH  068%=      5-min Rain = 0
KSLS 140317Z 24013KT 04/M01 A2987 RMK A01 T00381014  RH  069%=      5-min Rain = 0
KSLS 140318Z 24013KT 04/M01 A2987 RMK A01 T00371014  RH  069%=      5-min Rain = 0
KSLS 140319Z 24013KT 04/M01 A2987 RMK A01 T00361014  RH  069%=      5-min Rain = 0
KSLS 140320Z 24013KT 04/M01 A2986 RMK A01 T00351014  RH  070%=      5-min Rain = 0
KSLS 140321Z 24014KT 03/M01 A2986 RMK A01 T00341014  RH  071%=      5-min Rain = 0
KSLS 140322Z 24014KT 03/M01 A2986 RMK A01 T00341014  RH  071%=      5-min Rain = 0
KSLS 140323Z 24013KT 03/M01 A2986 RMK A01 T00341014  RH  070%=      5-min Rain = 0
KSLS 140324Z 24014KT 03/M01 A2986 RMK A01 T00341014  RH  070%=      5-min Rain = 0
KSLS 140325Z 24014KT 03/M01 A2986 RMK A01 T00341014  RH  071%=      5-min Rain = 0
KSLS 140326Z 24013KT 04/M02 A2986 RMK A01 T00351015  RH  070%=      5-min Rain = 0
KSLS 140327Z 24014KT 04/M02 A2986 RMK A01 T00351015  RH  070%=      5-min Rain = 0
KSLS 140328Z 24014KT 03/M02 A2986 RMK A01 T00341015  RH  070%=      5-min Rain = 0
KSLS 140329Z 24014KT 03/M02 A2986 RMK A01 T00341015  RH  070%=      5-min Rain = 0
KSLS 140330Z 24014KT 03/M02 A2986 RMK A01 T00341015  RH  070%=      5-min Rain = 0
KSLS 140331Z 24013KT 03/M02 A2986 RMK A01 T00341015  RH  070%=      5-min Rain = 0
KSLS 140332Z 24014KT 03/M02 A2986 RMK A01 T00331015  RH  071%=      5-min Rain = 0
KSLS 140333Z 24014KT 03/M02 A2986 RMK A01 T00321015  RH  071%=      5-min Rain = 0
KSLS 140334Z 24014KT 03/M02 A2986 RMK A01 T00311015  RH  072%=      5-min Rain = 0
KSLS 140335Z 24014KT 03/M02 A2986 RMK A01 T00301015  RH  072%=      5-min Rain = 0
KSLS 140336Z 24014KT 03/M02 A2986 RMK A01 T00301015  RH  072%=      5-min Rain = 0
KSLS 140337Z 24014KT 03/M02 A2986 RMK A01 T00301015  RH  072%=      5-min Rain = 0
KSLS 140338Z 24013KT 03/M02 A2986 RMK A01 T00311015  RH  072%=      5-min Rain = 0
KSLS 140339Z 24013KT 03/M02 A2986 RMK A01 T00311015  RH  072%=      5-min Rain = 0
KSLS 140340Z 24013KT 03/M02 A2986 RMK A01 T00311015  RH  072%=      5-min Rain = 0
KSLS 140341Z 24013KT 03/M02 A2986 RMK A01 T00311015  RH  072%=      5-min Rain = 0
KSLS 140342Z 24013KT 03/M02 A2986 RMK A01 T00311016  RH  071%=      5-min Rain = 0
KSLS 140343Z 25012KT 03/M02 A2986 RMK A01 T00311016  RH  071%=      5-min Rain = 0
KSLS 140344Z 24012KT 03/M02 A2986 RMK A01 T00311016  RH  071%=      5-min Rain = 0
KSLS 140345Z 24012KT 03/M02 A2986 RMK A01 T00321016  RH  071%=      5-min Rain = 0
KSLS 140346Z 24012KT 03/M02 A2986 RMK A01 T00321016  RH  071%=      5-min Rain = 0
KSLS 140347Z 24012KT 03/M02 A2986 RMK A01 T00321016  RH  071%=      5-min Rain = 0
KSLS 140348Z 24013KT 03/M02 A2986 RMK A01 T00321016  RH  071%=      5-min Rain = 0
KSLS 140349Z 24012KT 03/M02 A2986 RMK A01 T00331016  RH  070%=      5-min Rain = 0
KSLS 140350Z 24013KT 03/M02 A2986 RMK A01 T00331016  RH  070%=      5-min Rain = 0
KSLS 140351Z 24013KT 03/M02 A2986 RMK A01 T00331016  RH  070%=      5-min Rain = 0
KSLS 140352Z 25012KT 03/M02 A2986 RMK A01 T00331016  RH  070%=      5-min Rain = 0
KSLS 140353Z 25012KT 03/M02 A2986 RMK A01 T00331016  RH  070%=      5-min Rain = 0
KSLS 140354Z 25012KT 03/M02 A2986 RMK A01 T00331016  RH  070%=      5-min Rain = 0
KSLS 140355Z 25012KT 03/M02 A2986 RMK A01 T00341016  RH  069%=      5-min Rain = 0
KSLS 140356Z 25012KT 04/M02 A2986 RMK A01 T00351017  RH  069%=      5-min Rain = 0
KSLS 140357Z 25013KT 04/M02 A2986 RMK A01 T00351017  RH  069%=      5-min Rain = 0
KSLS 140358Z 25012KT 04/M02 A2986 RMK A01 T00361017  RH  068%=      5-min Rain = 0
KSLS 140359Z 24012KT 04/M02 A2986 RMK A01 T00361017  RH  068%=      5-min Rain = 0
KSLS 140400Z 24012KT 04/M02 A2986 RMK A01 T00361017  RH  068%=      5-min Rain = 0
KSLS 140401Z 24012KT 04/M02 A2986 RMK A01 T00351017  RH  069%=      5-min Rain = 0
KSLS 140402Z 24012KT 03/M02 A2986 RMK A01 T00331017  RH  070%=      5-min Rain = 0
KSLS 140403Z 24013KT 03/M02 A2986 RMK A01 T00311017  RH  071%=      5-min Rain = 0
KSLS 140404Z 24013KT 03/M02 A2986 RMK A01 T00311017  RH  071%=      5-min Rain = 0
KSLS 140405Z 24012KT 03/M02 A2986 RMK A01 T00301017  RH  071%=      5-min Rain = 0
KSLS 140406Z 24012KT 03/M02 A2986 RMK A01 T00301017  RH  071%=      5-min Rain = 0
KSLS 140407Z 24011KT 03/M02 A2986 RMK A01 T00301017  RH  071%=      5-min Rain = 0
KSLS 140408Z 24012KT 03/M02 A2986 RMK A01 T00301016  RH  071%=      5-min Rain = 0
KSLS 140409Z 24012KT 03/M02 A2986 RMK A01 T00301016  RH  071%=      5-min Rain = 0
KSLS 140410Z 24012KT 03/M02 A2986 RMK A01 T00301016  RH  071%=      5-min Rain = 0
KSLS 140411Z 24012KT 03/M02 A2986 RMK A01 T00301017  RH  072%=      5-min Rain = 0
KSLS 140412Z 24012KT 03/M02 A2986 RMK A01 T00301017  RH  072%=      5-min Rain = 0
KSLS 140413Z 24012KT 03/M02 A2986 RMK A01 T00301017  RH  072%=      5-min Rain = 0
KSLS 140414Z 24012KT 03/M02 A2986 RMK A01 T00301017  RH  072%=      5-min Rain = 0
KSLS 140415Z 24012KT 03/M02 A2986 RMK A01 T00301017  RH  072%=      5-min Rain = 0
KSLS 140416Z 24012KT 03/M02 A2986 RMK A01 T00301017  RH  071%=      5-min Rain = 0
KSLS 140417Z 24012KT 03/M02 A2985 RMK A01 T00301017  RH  071%=      5-min Rain = 0
KSLS 140418Z 24012KT 03/M02 A2985 RMK A01 T00311017  RH  071%=      5-min Rain = 0
KSLS 140419Z 24012KT 03/M02 A2985 RMK A01 T00311017  RH  070%=      5-min Rain = 0
KSLS 140420Z 24013KT 03/M02 A2985 RMK A01 T00321017  RH  070%=      5-min Rain = 0
KSLS 140421Z 24012KT 03/M02 A2985 RMK A01 T00331017  RH  070%=      5-min Rain = 0
KSLS 140422Z 24012KT 03/M02 A2985 RMK A01 T00341017  RH  069%=      5-min Rain = 0
KSLS 140423Z 24013KT 04/M02 A2985 RMK A01 T00351017  RH  068%=      5-min Rain = 0
KSLS 140424Z 25012KT 04/M02 A2985 RMK A01 T00361017  RH  068%=      5-min Rain = 0
KSLS 140425Z 24012KT 04/M02 A2985 RMK A01 T00371018  RH  068%=      5-min Rain = 0
KSLS 140426Z 24013KT 04/M02 A2985 RMK A01 T00371018  RH  067%=      5-min Rain = 0
KSLS 140427Z 24013KT 04/M02 A2985 RMK A01 T00371018  RH  067%=      5-min Rain = 0
KSLS 140428Z 25013KT 04/M02 A2985 RMK A01 T00371018  RH  067%=      5-min Rain = 0
KSLS 140429Z 25013KT 04/M02 A2985 RMK A01 T00381018  RH  067%=      5-min Rain = 0
KSLS 140430Z 25012KT 04/M02 A2985 RMK A01 T00381018  RH  067%=      5-min Rain = 0
KSLS 140431Z 25012KT 04/M02 A2985 RMK A01 T00391018  RH  066%=      5-min Rain = 0
KSLS 140432Z 24014KT 04/M02 A2985 RMK A01 T00391018  RH  066%=      5-min Rain = 0
KSLS 140433Z 25013KT 04/M02 A2985 RMK A01 T00411019  RH  065%=      5-min Rain = 0
KSLS 140434Z 25013KT 04/M02 A2985 RMK A01 T00431019  RH  064%=      5-min Rain = 0
KSLS 140435Z 25012KT 04/M02 A2985 RMK A01 T00431019  RH  064%=      5-min Rain = 0
KSLS 140436Z 25012KT 04/M02 A2985 RMK A01 T00431020  RH  064%=      5-min Rain = 0
KSLS 140437Z 25012KT 04/M02 A2985 RMK A01 T00431020  RH  064%=      5-min Rain = 0
KSLS 140438Z 24011KT 04/M02 A2985 RMK A01 T00431020  RH  064%=      5-min Rain = 0
KSLS 140439Z 24011KT 04/M02 A2985 RMK A01 T00431020  RH  064%=      5-min Rain = 0
KSLS 140440Z 24011KT 04/M02 A2985 RMK A01 T00411020  RH  064%=      5-min Rain = 0
KSLS 140441Z 24010KT 04/M02 A2985 RMK A01 T00401020  RH  065%=      5-min Rain = 0
KSLS 140442Z 25011KT 04/M02 A2985 RMK A01 T00401020  RH  065%=      5-min Rain = 0
KSLS 140443Z 25010KT 04/M02 A2985 RMK A01 T00401021  RH  065%=      5-min Rain = 0
KSLS 140444Z 25011KT 04/M02 A2985 RMK A01 T00411020  RH  064%=      5-min Rain = 0
KSLS 140445Z 24012KT 04/M02 A2985 RMK A01 T00411021  RH  064%=      5-min Rain = 0
KSLS 140446Z 24013KT 04/M02 A2985 RMK A01 T00421021  RH  064%=      5-min Rain = 0
KSLS 140447Z 24014KT 04/M02 A2985 RMK A01 T00431021  RH  063%=      5-min Rain = 0
KSLS 140448Z 24013KT 04/M02 A2985 RMK A01 T00441021  RH  063%=      5-min Rain = 0
KSLS 140449Z 25012KT 04/M02 A2985 RMK A01 T00441020  RH  063%=      5-min Rain = 0
KSLS 140450Z 25012KT 04/M02 A2985 RMK A01 T00431021  RH  063%=      5-min Rain = 0
KSLS 140451Z 25013KT 04/M02 A2984 RMK A01 T00441021  RH  063%=      5-min Rain = 0
KSLS 140452Z 24013KT 04/M02 A2984 RMK A01 T00441021  RH  063%=      5-min Rain = 0
KSLS 140453Z 24013KT 04/M02 A2984 RMK A01 T00441021  RH  063%=      5-min Rain = 0
KSLS 140454Z 25013KT 04/M02 A2984 RMK A01 T00431020  RH  063%=      5-min Rain = 0
KSLS 140455Z 25013KT 04/M02 A2984 RMK A01 T00431020  RH  063%=      5-min Rain = 0
KSLS 140456Z 24014KT 04/M02 A2984 RMK A01 T00431021  RH  063%=      5-min Rain = 0
KSLS 140457Z 24013KT 04/M02 A2984 RMK A01 T00431020  RH  063%=      5-min Rain = 0
KSLS 140458Z 24014KT 04/M02 A2984 RMK A01 T00431020  RH  064%=      5-min Rain = 0
KSLS 140459Z 24013KT 04/M02 A2984 RMK A01 T00421020  RH  064%=      5-min Rain = 0
KSLS 140500Z 24013KT 04/M02 A2984 RMK A01 T00411020  RH  065%=      5-min Rain = 0
KSLS 140501Z 25013KT 04/M02 A2984 RMK A01 T00411020  RH  065%=      5-min Rain = 0
KSLS 140502Z 25013KT 04/M02 A2984 RMK A01 T00401020  RH  065%=      5-min Rain = 0
KSLS 140503Z 25014KT 04/M02 A2984 RMK A01 T00411020  RH  064%=      5-min Rain = 0
KSLS 140504Z 25014KT 04/M02 A2984 RMK A01 T00411020  RH  064%=      5-min Rain = 0
KSLS 140505Z 25013KT 04/M02 A2984 RMK A01 T00411020  RH  064%=      5-min Rain = 0
KSLS 140506Z 25013KT 04/M02 A2984 RMK A01 T00411020  RH  065%=      5-min Rain = 0
KSLS 140507Z 25013KT 04/M02 A2984 RMK A01 T00401020  RH  065%=      5-min Rain = 0
KSLS 140508Z 25013KT 04/M02 A2984 RMK A01 T00401020  RH  065%=      5-min Rain = 0
KSLS 140509Z 25014KT 04/M02 A2984 RMK A01 T00401020  RH  065%=      5-min Rain = 0
KSLS 140510Z 25013KT 04/M02 A2984 RMK A01 T00401020  RH  065%=      5-min Rain = 0
KSLS 140511Z 24013KT 04/M02 A2984 RMK A01 T00401020  RH  065%=      5-min Rain = 0
KSLS 140512Z 24013KT 04/M02 A2984 RMK A01 T00381020  RH  066%=      5-min Rain = 0
KSLS 140513Z 24013KT 04/M02 A2984 RMK A01 T00371020  RH  066%=      5-min Rain = 0
KSLS 140514Z 25014KT 04/M02 A2984 RMK A01 T00371020  RH  067%=      5-min Rain = 0
KSLS 140515Z 25013KT 04/M02 A2984 RMK A01 T00371020  RH  067%=      5-min Rain = 0
KSLS 140516Z 25013KT 04/M02 A2984 RMK A01 T00371020  RH  066%=      5-min Rain = 0
KSLS 140517Z 25013KT 04/M02 A2983 RMK A01 T00381020  RH  066%=      5-min Rain = 0
KSLS 140518Z 25012KT 04/M02 A2983 RMK A01 T00381020  RH  066%=      5-min Rain = 0
KSLS 140519Z 25012KT 04/M02 A2983 RMK A01 T00381020  RH  066%=      5-min Rain = 0
KSLS 140520Z 25013KT 04/M02 A2983 RMK A01 T00381020  RH  066%=      5-min Rain = 0
KSLS 140521Z 25012KT 04/M02 A2983 RMK A01 T00381021  RH  065%=      5-min Rain = 0
KSLS 140522Z 25012KT 04/M02 A2983 RMK A01 T00381021  RH  065%=      5-min Rain = 0
KSLS 140523Z 25013KT 04/M02 A2983 RMK A01 T00381021  RH  065%=      5-min Rain = 0
KSLS 140524Z 25013KT 04/M02 A2983 RMK A01 T00391021  RH  065%=      5-min Rain = 0
KSLS 140525Z 25013KT 04/M02 A2983 RMK A01 T00391021  RH  065%=      5-min Rain = 0
KSLS 140526Z 25013KT 04/M02 A2983 RMK A01 T00391021  RH  065%=      5-min Rain = 0
KSLS 140527Z 25012KT 04/M02 A2983 RMK A01 T00391020  RH  065%=      5-min Rain = 0
KSLS 140528Z 25013KT 04/M02 A2983 RMK A01 T00391021  RH  065%=      5-min Rain = 0
KSLS 140529Z 25013KT 04/M02 A2983 RMK A01 T00391021  RH  065%=      5-min Rain = 0
KSLS 140530Z 25012KT 04/M02 A2984 RMK A01 T00391020  RH  065%=      5-min Rain = 0
KSLS 140531Z 25013KT 04/M02 A2984 RMK A01 T00391020  RH  065%=      5-min Rain = 0
KSLS 140532Z 25014KT 04/M02 A2984 RMK A01 T00401020  RH  065%=      5-min Rain = 0
KSLS 140533Z 25014KT 04/M02 A2984 RMK A01 T00401020  RH  065%=      5-min Rain = 0
KSLS 140534Z 26013KT 04/M02 A2984 RMK A01 T00411020  RH  064%=      5-min Rain = 0
KSLS 140535Z 26013KT 04/M02 A2984 RMK A01 T00411019  RH  065%=      5-min Rain = 0
KSLS 140536Z 26014KT 04/M02 A2984 RMK A01 T00411019  RH  065%=      5-min Rain = 0
KSLS 140537Z 26014KT 04/M02 A2984 RMK A01 T00411019  RH  065%=      5-min Rain = 0
KSLS 140538Z 26013KT 04/M02 A2984 RMK A01 T00411019  RH  065%=      5-min Rain = 0
KSLS 140539Z 26013KT 04/M02 A2984 RMK A01 T00401019  RH  066%=      5-min Rain = 0
KSLS 140540Z 26014KT 04/M02 A2984 RMK A01 T00391018  RH  066%=      5-min Rain = 0
KSLS 140541Z 26014G19KT 04/M02 A2985 RMK A01 T00391019  RH  066%=      5-min Rain = 0
KSLS 140542Z 26014KT 04/M02 A2985 RMK A01 T00391018  RH  066%=      5-min Rain = 0
KSLS 140543Z 26014KT 04/M02 A2985 RMK A01 T00391018  RH  066%=      5-min Rain = 0
KSLS 140544Z 26014KT 04/M02 A2985 RMK A01 T00391018  RH  066%=      5-min Rain = 0
KSLS 140545Z 26014KT 04/M02 A2985 RMK A01 T00381018  RH  067%=      5-min Rain = 0
KSLS 140546Z 26014KT 04/M02 A2985 RMK A01 T00381018  RH  067%=      5-min Rain = 0
KSLS 140547Z 26014KT 04/M02 A2985 RMK A01 T00381018  RH  067%=      5-min Rain = 0
KSLS 140548Z 26013KT 04/M02 A2985 RMK A01 T00371018  RH  067%=      5-min Rain = 0
KSLS 140549Z 26013KT 04/M02 A2985 RMK A01 T00371018  RH  067%=      5-min Rain = 0
KSLS 140550Z 26012KT 04/M02 A2985 RMK A01 T00371018  RH  067%=      5-min Rain = 0
KSLS 140551Z 26012KT 04/M02 A2985 RMK A01 T00361018  RH  068%=      5-min Rain = 0
KSLS 140552Z 26012KT 04/M02 A2985 RMK A01 T00351018  RH  068%=      5-min Rain = 0
KSLS 140553Z 26013KT 04/M02 A2985 RMK A01 T00351017  RH  069%=      5-min Rain = 0
KSLS 140554Z 26013KT 03/M02 A2984 RMK A01 T00341017  RH  069%=      5-min Rain = 0
KSLS 140555Z 26013KT 03/M02 A2984 RMK A01 T00341017  RH  069%=      5-min Rain = 0
KSLS 140556Z 26013KT 03/M02 A2984 RMK A01 T00341017  RH  069%=      5-min Rain = 0
KSLS 140557Z 26013KT 03/M02 A2984 RMK A01 T00341017  RH  069%=      5-min Rain = 0
KSLS 140558Z 26012KT 04/M02 A2984 RMK A01 T00351017  RH  069%=      5-min Rain = 0
KSLS 140559Z 26012KT 04/M02 A2984 RMK A01 T00351017  RH  068%=      5-min Rain = 0

Page generated in 0.07 seconds.